GFSFLT1_con_3kmhel_000.txt.gz
Helicity
148 151 166 245 339 397 456 416 323 215 158 160 139 153 137 124 85 99 132 146 160 125 113 151 138 129 169 155 163 148 126 160
195 198 182 251 299 311 234 229 130 58 62 87 119 110 96 90 94 115 141 138 165 168 153 148 158 170 160 166 150 186 156 159
216 182 161 139 63 39 16 14 -43 -2 44 55 59 73 69 115 120 156 183 157 156 151 161 172 170 151 206 192 170 143 105 81
71 76 23 -9 -11 -12 25 31 35 62 84 91 92 82 88 102 122 142 171 197 198 211 246 218 212 163 165 99 114 145 164 99
78 45 45 59 77 66 61 78 81 68 58 92 89 85 94 89 95 143 183 201 195 192 213 179 141 154 177 152 160 111 96 189
23 36 38 127 94 58 52 66 79 84 104 128 132 145 147 156 181 177 160 157 176 193 184 183 201 125 183 202 152 136 106 109
127 53 53 73 99 104 103 131 133 126 159 185 199 212 197 214 198 194 242 226 194 171 156 180 236 236 198 129 157 157 89 97
72 94 160 120 158 156 164 181 223 243 269 264 250 217 210 221 227 234 226 204 195 163 231 280 314 291 269 224 239 90 104 152
149 165 226 240 280 238 222 212 211 214 246 256 210 189 179 186 196 190 178 174 160 210 263 278 308 203 92 137 19 87 134 101
255 270 314 336 326 276 215 183 183 184 181 180 181 168 160 138 143 137 144 153 196 232 348 366 178 257 229 220 88 104 111 108
323 379 385 379 318 217 214 136 171 139 186 155 127 125 119 104 78 84 105 134 189 266 329 274 283 138 78 67 91 95 96 106
467 488 438 361 288 229 123 227 156 187 138 104 115 94 71 68 68 70 75 102 177 281 297 234 121 98 84 94 92 70 95 118
499 409 341 267 160 150 196 107 128 135 99 82 75 65 57 51 52 50 59 135 188 197 196 141 128 109 83 85 80 94 113 106
392 304 240 153 197 173 61 104 109 107 94 57 39 48 50 42 46 60 95 137 174 147 136 130 154 98 86 89 87 107 89 79
279 247 187 192 135 37 101 108 101 83 66 50 63 59 37 45 72 89 114 134 133 142 135 120 99 90 85 115 101 72 87 110
244 230 180 103 59 99 94 88 81 85 77 84 78 60 65 82 99 115 128 126 121 115 115 131 83 109 125 103 88 106 111 133
207 185 92 92 83 104 86 76 81 106 98 91 105 109 106 117 128 127 118 117 128 134 143 119 129 139 143 119 117 115 121 148
179 121 91 107 98 103 87 93 108 126 137 142 145 139 133 139 131 125 124 124 129 128 109 111 180 166 157 154 155 124 134 135
150 130 126 112 131 128 118 118 133 165 155 160 167 164 155 148 134 122 123 127 105 121 139 135 157 132 147 129 102 107 105 95

GFSFLT1_con_3kmhel_003.txt.gz
Helicity
115 144 123 155 233 288 287 192 188 178 100 58 64 60 55 72 93 115 113 140 150 153 159 153 154 167 167 159 159 148 144 127
152 167 144 151 152 177 180 163 131 85 51 -10 -1 42 83 121 143 157 148 145 167 155 170 188 189 192 182 176 152 157 159 160
128 106 96 75 75 77 59 55 41 24 -33 -13 34 73 102 120 128 158 179 196 214 210 200 187 181 171 179 174 160 157 142 136
49 19 -19 -38 -27 6 3 4 -22 -43 -7 58 106 130 132 127 152 173 183 187 192 188 176 168 161 139 164 180 185 190 184 162
58 22 21 -17 1 19 26 36 68 83 74 91 133 143 158 175 184 178 212 225 196 165 141 122 122 164 211 195 197 225 197 216
62 23 -25 -25 43 124 136 155 141 141 161 162 175 201 207 199 184 196 183 168 142 118 118 138 162 212 226 213 200 186 164 196
32 65 71 118 178 147 200 211 223 233 235 263 252 239 209 176 170 161 153 142 143 152 142 162 202 246 246 246 189 143 146 155
41 58 83 144 206 232 284 273 240 202 192 178 176 175 189 177 145 121 114 125 127 134 157 226 301 298 245 207 157 147 111 125
64 96 124 203 286 317 308 273 240 185 146 161 157 184 155 111 87 79 91 109 111 111 169 287 343 261 223 108 73 95 117 103
119 177 232 306 328 287 262 265 217 169 103 118 138 108 73 52 55 65 75 78 87 111 179 246 260 228 126 106 126 142 120 101
212 268 328 355 310 259 250 242 139 114 81 118 100 68 49 64 71 70 66 78 89 113 187 213 192 120 101 116 111 95 92 93
278 351 408 370 291 214 191 105 108 136 104 132 100 86 79 64 65 73 83 87 106 122 151 170 138 107 94 105 92 76 82 86
350 399 392 362 237 172 121 114 153 123 150 117 115 100 70 60 63 71 81 91 122 155 155 143 95 92 96 99 78 73 77 70
401 371 344 282 185 137 118 131 126 163 126 120 119 88 68 65 69 73 78 92 109 122 133 111 98 90 108 91 95 105 80 69
328 308 280 170 145 98 84 137 164 126 101 118 95 86 88 76 78 82 94 102 109 129 119 89 80 113 92 98 126 101 104 80
272 235 181 133 108 136 124 146 123 94 107 93 93 117 100 101 107 95 98 107 128 113 81 111 128 103 117 143 132 117 93 73
191 153 123 165 147 139 139 130 95 110 95 94 125 137 129 139 122 110 119 118 118 123 112 129 131 106 126 189 149 115 89 84
164 126 116 119 159 145 136 113 115 107 114 115 141 166 159 145 129 113 112 118 112 116 128 127 142 163 158 148 128 95 85 92
138 127 110 121 172 173 140 121 113 117 117 125 156 169 159 155 127 116 121 116 112 121 134 140 154 158 130 116 92 79 85 82

GFSFLT1_con_3kmhel_006.txt.gz
Helicity
30 41 72 84 102 105 102 78 85 78 30 30 36 43 55 48 66 87 102 116 120 110 125 125 122 122 118 154 135 143 100 107
79 106 113 116 105 101 81 75 66 28 36 47 27 25 49 62 98 106 100 111 121 129 131 124 124 145 163 147 144 132 145 203
106 101 109 100 68 50 42 55 41 38 41 40 15 27 70 113 119 122 131 140 162 157 156 150 166 144 143 150 140 134 135 178
102 68 68 55 41 37 54 78 64 60 36 26 40 85 103 118 143 164 186 174 171 151 137 134 131 121 132 167 159 140 148 141
122 72 82 65 60 79 122 125 105 73 68 115 136 119 144 138 150 167 151 144 131 124 122 123 124 126 137 149 161 153 172 200
76 106 58 61 101 133 132 156 155 153 157 138 148 137 129 135 153 141 118 111 105 106 108 118 122 140 166 172 185 204 192 200
139 100 81 92 130 136 137 178 195 186 172 179 162 143 140 172 174 135 125 110 97 90 102 113 128 157 187 206 215 203 179 144
117 94 79 125 136 173 185 200 224 208 187 163 138 151 138 149 131 109 94 97 97 93 96 104 137 188 250 261 238 116 91 142
94 87 97 151 193 223 206 198 215 239 215 176 109 122 143 121 87 84 82 92 90 83 83 101 165 199 267 203 81 124 145 113
117 131 132 191 257 264 232 245 272 289 254 138 182 151 108 60 52 77 95 87 84 87 88 109 168 185 119 108 139 133 127 92
164 177 202 234 302 305 268 266 223 226 143 103 133 117 76 74 91 88 77 80 82 83 90 121 158 120 121 129 112 116 104 70
185 220 255 298 340 319 297 220 191 74 102 89 138 110 105 103 84 77 74 67 74 73 90 126 102 109 88 81 102 92 74 61
226 276 324 370 357 324 273 169 109 128 124 156 131 132 115 95 80 67 71 64 73 78 90 97 80 83 71 101 87 65 76 84
256 300 385 379 340 281 203 100 131 134 171 144 137 106 93 90 78 78 76 75 74 74 81 102 93 92 92 91 80 70 101 100
268 300 364 350 268 218 150 144 153 184 144 118 102 87 94 90 90 84 88 88 94 100 88 87 105 97 101 106 112 99 121 110
268 299 305 245 217 231 176 162 192 149 120 95 88 87 90 103 103 105 105 94 96 110 127 133 113 111 124 104 95 76 121 85
239 204 195 209 222 206 187 196 163 138 105 79 85 97 106 113 120 122 99 94 107 105 100 98 112 135 166 135 126 79 78 70
168 183 179 195 210 198 190 201 170 123 91 87 95 109 111 119 132 118 120 109 109 102 89 84 104 139 140 128 94 70 76 85
162 182 180 176 193 210 203 179 139 110 101 101 112 108 116 120 128 123 128 115 108 111 103 99 108 183 139 119 78 64 74 79

GFSFLT1_con_3kmhel_009.txt.gz
Helicity
43 44 59 72 90 76 71 52 70 66 65 53 46 59 45 37 53 53 55 74 82 84 109 99 56 77 108 167 125 124 112 106
55 36 72 94 115 91 64 72 55 47 68 72 62 56 56 51 71 77 80 99 94 85 110 113 113 124 136 117 117 129 113 110
97 108 95 110 108 94 63 82 68 77 67 85 70 64 85 96 97 88 122 121 132 114 143 120 147 135 117 110 139 146 114 113
122 117 123 141 124 90 76 82 115 126 95 63 86 97 64 69 107 123 162 119 118 125 128 128 120 103 111 137 131 185 145 164
133 127 109 90 92 60 77 115 135 94 113 156 164 171 191 158 123 164 120 152 126 109 104 98 106 108 112 118 140 280 161 184
143 137 112 87 84 76 141 131 130 152 201 170 194 194 149 126 148 132 159 169 128 112 114 125 134 123 127 153 197 195 201 199
196 187 158 153 120 142 150 141 165 196 232 260 257 221 164 146 186 169 167 107 100 113 123 114 107 110 117 156 267 243 308 231
235 263 163 132 143 149 169 217 207 224 267 298 291 217 173 159 153 167 115 100 110 127 110 105 106 119 209 295 298 234 153 184
195 173 139 145 153 173 203 219 249 285 316 348 314 174 227 165 177 124 98 111 125 112 99 89 97 170 216 192 103 80 71 87
159 151 159 153 156 195 228 244 302 331 321 250 200 142 108 175 120 94 119 116 101 103 75 81 195 118 109 69 123 82 101 147
145 153 188 186 152 213 256 305 338 321 263 221 106 102 135 130 118 126 111 92 80 83 80 78 126 132 106 81 80 107 83 115
145 207 206 207 215 254 297 348 396 280 215 183 118 108 147 111 124 113 101 79 74 83 97 99 99 111 63 77 87 53 81 115
143 206 220 232 263 306 332 429 368 239 219 145 91 161 126 128 122 107 95 66 80 88 101 107 84 87 79 101 70 64 62 71
187 241 240 253 296 328 426 411 326 233 160 77 149 160 129 117 106 102 82 87 84 83 93 100 107 120 94 62 58 69 68 98
205 268 263 270 306 357 411 400 322 184 101 133 210 165 120 114 102 98 102 90 86 94 102 132 97 106 79 69 76 88 95 77
235 279 263 284 311 339 369 376 291 161 131 175 188 147 100 81 107 97 111 104 93 87 131 105 106 109 161 150 90 80 97 90
184 188 213 246 272 268 310 342 241 173 174 175 158 118 82 98 104 98 92 93 118 102 127 124 121 96 278 182 117 87 74 83
151 159 157 177 213 249 305 283 252 228 174 154 108 82 83 93 77 81 93 131 131 111 131 107 136 158 232 176 119 84 77 85
99 122 176 206 215 301 276 279 289 220 288 203 97 92 75 71 81 81 111 125 128 145 121 123 122 274 263 172 110 70 89 90

GFSFLT1_con_3kmhel_015.txt.gz
Helicity
118 180 200 175 82 90 167 134 128 150 152 90 110 104 141 83 130 111 93 71 91 125 130 133 133 133 158 162 154 135 125 125
125 227 248 204 129 184 212 164 126 172 126 148 112 197 157 142 133 126 118 100 110 134 139 154 158 142 127 125 126 125 117 153
161 300 334 321 236 197 213 146 93 94 96 97 106 140 127 143 155 117 105 125 132 134 133 170 163 133 124 126 132 128 153 187
177 245 372 331 324 247 176 97 67 96 252 224 245 264 245 215 223 196 159 178 171 158 193 191 167 143 139 140 146 171 169 187
347 251 373 384 302 247 221 122 203 240 295 325 354 324 399 373 356 249 245 223 204 202 183 195 158 122 138 152 175 196 216 253
432 329 381 334 316 315 241 344 389 301 302 351 409 512 521 483 416 361 275 246 189 231 196 193 141 131 136 183 220 228 227 221
346 364 368 314 310 360 404 488 475 390 399 396 490 550 523 471 399 338 264 188 223 240 207 165 130 149 160 174 182 204 212 223
411 421 360 298 290 416 501 563 451 444 466 491 502 483 459 413 326 281 252 219 240 225 188 165 138 138 161 161 149 148 178 206
318 295 248 397 465 490 459 449 455 439 426 423 419 433 399 352 308 267 220 199 195 217 203 178 151 132 183 155 130 142 154 159
242 276 370 530 533 505 464 463 423 412 391 401 417 422 401 367 323 295 268 241 157 170 156 152 134 166 165 161 133 125 140 151
243 327 473 548 522 450 410 411 429 401 380 383 384 389 367 334 311 298 257 227 201 141 146 132 121 139 152 156 154 145 159 160
331 400 451 479 452 382 331 407 457 432 432 402 378 345 311 277 265 212 209 211 186 158 139 110 109 102 118 138 146 146 220 228
384 446 496 497 511 496 455 471 504 505 500 412 342 306 272 257 266 265 192 155 159 138 105 91 85 105 123 111 110 143 192 179
356 455 537 563 583 620 610 639 623 651 626 520 422 334 287 277 281 237 191 167 164 117 99 75 72 97 93 95 140 219 220 186
280 332 484 626 665 673 635 672 739 688 630 579 490 338 330 295 261 200 181 165 146 107 64 47 21 85 113 166 204 214 219 207
99 273 455 570 623 646 583 589 628 633 600 546 425 304 336 340 304 293 199 166 121 88 72 30 53 148 183 187 192 200 198 167
87 131 327 466 528 569 540 490 568 608 586 515 434 488 561 559 470 404 263 128 79 92 101 114 116 174 230 236 225 206 196 171
133 89 90 228 334 297 335 428 541 590 571 564 649 693 728 755 615 333 105 33 85 109 151 168 190 273 285 304 273 223 201 157
166 125 106 108 149 217 356 482 555 592 635 757 806 819 712 658 580 189 97 79 93 114 133 164 266 300 277 295 300 246 205 170

GFSFLT1_con_3kmhel_018.txt.gz
Helicity
207 157 111 103 74 81 86 95 153 135 155 154 170 181 150 124 129 137 155 138 133 124 89 76 63 77 104 101 89 86 81 84
223 219 128 93 99 129 114 153 159 212 208 212 182 155 157 168 170 161 171 157 131 105 98 90 99 130 148 122 103 94 93 106
226 242 199 180 195 158 130 164 186 193 181 172 185 160 151 170 176 193 174 158 128 128 151 147 148 146 188 159 129 109 104 142
322 309 309 273 266 215 154 172 202 189 199 267 256 222 265 224 245 244 211 195 173 178 184 204 220 178 184 165 149 150 143 186
378 382 333 340 305 230 165 173 220 228 263 312 279 245 278 231 270 255 241 221 224 224 222 223 224 200 195 181 192 171 183 197
404 421 404 345 330 293 212 173 215 190 257 309 326 328 337 392 397 336 290 293 263 246 218 230 245 206 177 175 197 220 198 191
315 361 387 331 265 260 251 297 271 282 368 422 451 470 516 570 465 371 339 344 326 282 233 229 234 177 184 145 164 183 166 168
397 418 381 327 282 340 422 427 449 377 407 445 518 582 622 547 403 366 377 351 286 230 212 243 257 153 141 144 166 136 125 148
421 414 353 371 349 418 480 521 519 473 463 510 502 505 442 396 379 376 330 274 223 223 213 214 305 170 170 144 144 132 130 126
335 323 361 359 454 469 537 552 569 510 514 508 469 438 446 412 396 355 274 229 154 205 242 244 212 165 172 134 139 143 138 118
222 288 343 388 452 555 599 542 530 528 473 445 436 412 398 378 363 286 209 192 242 266 257 253 177 152 148 164 129 150 143 133
242 300 326 381 460 546 592 579 557 506 539 471 487 452 410 370 332 305 309 286 272 249 245 219 190 157 127 128 114 107 135 175
296 332 357 388 469 549 591 596 562 556 551 570 562 524 487 464 396 336 365 310 258 271 213 167 129 105 82 85 87 118 128 148
350 418 419 444 451 487 547 584 626 655 665 603 570 525 456 429 387 356 333 301 303 288 205 162 146 104 104 101 112 166 171 165
341 374 409 461 483 524 595 619 670 624 629 595 590 499 458 413 384 413 372 357 397 250 199 97 135 105 85 157 188 181 188 193
173 267 282 353 435 541 632 698 618 591 599 600 528 461 414 464 513 488 560 454 366 308 125 155 122 100 123 199 223 211 202 193
124 64 152 292 453 527 591 562 539 558 564 540 481 476 551 666 753 777 826 782 598 170 109 139 114 146 157 226 273 260 227 232
137 85 67 142 261 398 420 413 454 477 537 486 569 681 834 863 911 1018 1065 714 222 85 112 93 116 169 155 267 292 271 262 205
220 202 112 67 131 177 270 381 492 570 624 672 797 931 957 983 975 1012 801 175 118 117 67 59 100 137 217 295 315 285 272 217

GFSFLT1_con_3kmhel_021.txt.gz
Helicity
20 25 13 9 -0 15 33 30 74 118 145 134 151 146 163 150 161 138 143 143 146 135 107 110 85 99 81 58 87 113 94 78
83 54 25 9 3 62 60 96 132 196 208 204 167 164 173 193 169 153 168 168 136 140 124 94 115 119 92 104 91 108 123 96
99 89 86 79 80 116 142 166 185 180 212 190 143 180 181 185 173 162 168 158 148 167 140 124 139 133 156 138 125 112 120 125
154 167 178 138 133 166 192 224 214 193 230 297 308 267 251 229 206 201 173 180 201 198 177 172 168 150 140 151 176 174 197 172
208 177 219 242 212 143 188 264 264 251 319 337 334 295 278 202 215 214 226 210 209 203 202 198 191 160 163 157 212 204 224 198
326 248 248 268 245 184 169 217 296 304 317 305 367 354 239 275 290 299 283 283 284 257 221 224 209 185 211 173 277 266 197 209
309 318 296 234 284 251 212 270 281 307 291 242 402 397 342 359 355 346 345 353 319 300 276 243 230 217 183 222 265 220 170 181
360 353 349 288 336 295 286 316 310 319 256 297 368 416 438 405 417 410 389 364 337 354 302 281 231 154 234 218 302 243 139 162
291 364 321 344 297 277 314 326 290 367 308 368 394 459 491 500 494 459 436 435 382 332 342 270 128 196 263 174 203 197 171 140
243 353 362 347 291 311 334 317 373 334 353 442 472 484 522 576 563 552 525 454 411 361 294 179 246 207 228 235 195 167 165 150
171 238 291 302 295 335 386 411 408 443 516 530 503 492 539 576 636 611 521 530 482 391 252 281 255 220 288 215 152 161 176 145
137 189 214 276 313 363 447 487 498 509 511 561 602 580 589 590 566 496 508 455 381 332 281 239 240 225 204 138 184 181 191 121
129 199 302 332 321 361 403 431 459 515 554 562 544 538 526 536 480 433 452 384 351 301 290 298 237 239 135 152 185 186 156 121
95 168 232 269 297 346 410 442 438 532 583 566 484 462 486 488 438 425 398 396 352 364 387 362 454 148 124 148 127 121 128 126
122 153 196 213 241 314 388 465 531 589 584 495 455 444 442 411 421 408 399 445 415 456 399 474 158 105 136 108 121 150 159 155
119 153 154 151 215 311 381 501 588 588 542 484 417 409 416 440 431 465 469 483 454 514 633 308 83 137 136 131 181 212 204 198
127 91 91 123 187 324 413 454 485 454 382 369 435 454 459 503 588 589 608 650 696 654 513 99 87 140 87 111 217 268 263 263
191 153 113 73 56 174 260 384 452 407 371 443 514 611 641 652 752 882 931 860 778 487 158 116 142 89 68 98 187 306 314 295
147 143 131 103 80 126 172 228 293 369 457 565 634 683 812 948 1005 979 1049 921 399 372 135 151 99 70 69 100 211 294 308 287

GFSFLT1_con_3kmhel_024.txt.gz
Helicity
19 46 32 -3 -21 -27 -14 -19 -25 -17 -7 -7 42 45 61 102 130 141 149 151 139 146 146 143 119 121 139 118 94 101 85 93
-24 10 19 -8 -14 -14 17 29 38 60 73 85 92 96 80 109 142 141 138 147 155 168 158 153 156 154 119 85 63 76 102 87
-1 -2 21 39 55 41 43 53 106 120 150 161 142 134 132 162 159 154 144 166 181 182 182 185 173 135 116 90 79 108 120 141
11 48 32 33 72 94 108 113 150 186 217 291 277 286 255 233 220 213 187 186 195 223 204 176 154 140 133 106 98 85 135 141
74 119 78 54 74 81 96 150 213 230 278 310 328 325 321 223 238 239 224 213 231 232 227 204 183 158 139 121 95 87 192 201
156 141 151 171 115 112 155 190 222 280 310 316 322 311 329 309 300 285 267 256 251 264 242 234 221 192 206 214 211 132 175 253
160 167 203 190 196 189 181 240 235 285 293 302 312 351 368 387 349 316 314 324 315 284 257 251 245 254 248 255 99 267 205 258
280 284 306 285 266 240 256 270 261 298 278 290 289 357 426 370 393 405 377 371 361 332 362 316 152 208 207 177 270 211 207 231
331 327 369 313 312 278 285 317 347 307 228 260 354 308 366 403 451 469 441 443 447 462 446 383 312 236 251 253 223 194 236 203
167 277 330 306 292 307 324 359 358 331 273 378 450 407 422 452 459 475 508 489 485 415 447 387 361 308 234 155 237 242 190 172
61 110 211 275 276 273 307 330 372 355 357 340 349 392 452 498 567 548 519 536 513 466 311 352 344 221 201 258 233 144 173 179
44 60 93 174 198 209 261 296 350 371 387 363 341 379 436 470 498 503 532 536 437 396 371 379 262 247 279 328 176 134 170 175
35 39 37 73 103 109 128 213 309 335 349 403 378 408 414 431 451 463 468 428 419 391 357 294 331 309 344 236 107 146 200 199
34 58 70 94 164 157 216 212 221 304 382 413 463 444 428 428 453 413 413 445 440 433 388 403 333 415 264 75 105 190 182 165
51 64 76 130 156 166 174 204 283 354 394 410 446 431 431 372 369 434 451 456 442 371 367 420 487 486 108 85 167 167 154 172
70 69 82 101 115 145 161 218 301 380 380 347 324 374 355 378 404 441 461 455 466 431 570 619 626 208 89 149 166 149 164 189
219 183 140 117 82 103 153 227 311 378 387 355 340 321 382 398 448 460 455 472 522 566 700 815 345 161 105 127 116 152 191 249
269 236 212 205 155 113 118 171 231 266 277 286 324 395 454 472 499 579 663 718 698 724 942 343 206 155 132 120 71 154 209 243
215 179 173 185 155 152 143 148 183 227 258 296 352 411 424 466 592 695 685 712 859 864 471 221 201 179 156 87 78 136 203 238

GFSFLT1_con_3kmhel_027.txt.gz
Helicity
27 42 19 12 21 16 13 6 -4 -20 -70 -35 -14 -17 14 41 56 69 96 97 101 100 121 141 145 147 132 111 114 102 77 71
31 27 27 17 6 7 5 -10 -27 -41 -42 -42 -34 -12 37 46 61 87 115 120 117 137 160 173 163 146 144 139 128 103 77 48
-5 10 4 22 37 34 29 34 43 45 27 26 42 74 94 102 122 130 137 148 151 162 177 180 168 178 169 144 122 114 94 35
-9 -1 25 10 7 13 5 6 32 47 74 112 131 175 145 152 170 169 178 182 199 193 183 184 191 183 167 140 109 92 91 145
7 34 48 64 54 19 30 53 90 90 125 143 176 179 189 170 173 196 224 212 235 243 225 221 206 180 168 151 109 66 88 110
39 40 32 44 51 59 60 73 105 133 155 164 174 175 209 202 243 293 267 254 232 250 257 250 237 237 254 268 195 80 78 132
36 30 60 73 79 77 81 97 105 142 174 212 190 226 271 273 304 345 312 297 285 271 275 278 284 311 303 200 191 115 88 158
102 114 113 114 135 143 145 132 152 188 209 257 242 238 313 322 383 406 403 367 314 328 329 316 307 290 199 173 182 125 160 166
119 116 138 153 176 163 187 192 182 226 263 241 273 258 311 331 328 354 405 386 340 350 333 325 370 260 148 174 177 136 181 193
63 72 97 141 176 187 220 212 183 208 257 247 228 270 289 345 347 370 396 387 380 378 364 378 367 177 220 173 116 196 176 182
31 35 60 100 170 142 135 150 195 211 207 230 258 270 274 356 349 337 372 388 377 378 364 379 171 246 181 227 257 218 220 144
-0 37 60 82 111 156 149 119 114 140 194 226 290 312 281 309 322 340 374 409 442 365 435 231 268 287 284 282 262 208 132 114
-2 33 35 7 21 40 38 53 86 137 212 216 225 258 277 284 309 348 411 403 386 357 344 370 397 373 359 366 330 142 74 113
27 27 17 4 10 30 39 64 88 133 155 154 189 216 229 215 222 261 289 337 399 313 326 434 284 339 342 383 241 64 69 105
90 72 50 43 42 40 74 106 121 135 140 157 186 200 193 191 163 181 270 333 387 329 390 308 335 519 381 393 98 10 62 138
122 106 112 102 84 82 110 121 120 117 125 133 155 180 193 211 234 316 348 355 379 404 481 568 684 532 560 135 50 88 121 143
234 227 212 207 173 142 137 132 125 117 123 120 129 149 159 203 268 299 317 351 412 451 703 713 687 439 297 116 105 126 149 142
270 256 235 206 190 168 150 120 114 125 134 129 126 145 171 204 240 279 320 385 528 677 720 579 665 293 144 148 128 187 133 122
270 226 194 174 129 122 125 160 168 154 147 146 147 164 192 217 262 324 416 535 680 578 613 386 262 209 145 134 129 88 105 103

GFSFLT1_con_3kmhel_030.txt.gz
Helicity
33 27 20 41 39 35 26 12 6 -26 -58 -84 -83 -56 -37 -2 -1 9 34 40 44 44 56 72 77 87 88 102 105 102 94 75
1 12 10 14 15 19 25 16 -6 -35 -51 -50 -35 -33 -13 -10 16 31 56 57 58 69 76 90 89 91 119 124 135 123 120 99
4 -8 -6 -1 11 13 10 8 3 -14 -34 -38 -31 -15 8 21 42 58 72 82 75 99 112 110 112 141 147 157 145 144 146 99
4 -4 8 12 13 11 1 -4 -12 -18 -16 -7 3 49 65 70 86 106 90 106 112 117 134 162 174 157 163 155 147 162 169 146
15 27 22 30 28 12 5 6 13 15 13 35 58 68 69 77 90 101 133 131 137 135 148 178 196 196 190 184 197 172 70 95
-12 -9 2 13 24 33 21 16 18 40 58 62 66 55 72 108 100 114 142 161 175 166 182 195 207 215 212 211 177 132 80 81
9 2 -1 1 20 30 37 35 35 42 62 68 72 64 86 154 159 183 202 234 254 228 238 237 228 217 217 222 192 153 62 106
33 35 32 34 57 64 67 70 75 84 103 89 107 107 163 138 195 223 254 256 308 285 279 277 290 248 275 250 214 173 129 90
28 37 45 63 66 87 94 99 93 117 132 138 154 143 198 178 192 299 305 330 415 369 382 227 253 350 263 262 161 179 120 142
45 22 34 29 49 84 99 115 130 140 168 148 178 168 200 271 237 287 294 321 321 413 363 285 357 282 280 232 193 161 168 162
22 31 54 50 29 42 48 61 82 111 127 122 129 157 149 213 188 261 304 303 286 318 348 343 400 281 337 162 202 228 180 238
23 18 46 50 49 48 55 56 34 55 70 87 104 120 222 226 238 211 189 192 248 362 496 554 312 253 181 275 201 248 234 144
48 48 63 75 71 57 61 57 57 59 62 68 83 142 142 153 153 168 170 199 315 408 393 284 281 191 298 293 251 318 329 113
61 85 62 54 42 38 37 44 53 70 95 94 92 115 136 147 169 189 215 249 299 285 292 276 335 261 316 470 545 369 153 50
83 81 76 93 88 80 85 97 111 115 124 130 122 121 139 152 177 179 180 180 200 252 270 344 321 285 472 493 550 175 80 64
120 137 126 131 156 161 162 166 140 135 141 141 150 146 144 144 147 152 183 200 225 215 257 378 314 367 583 568 291 103 95 92
170 176 190 218 230 222 195 177 180 164 173 182 175 159 149 155 160 158 165 187 209 279 370 491 626 499 717 234 162 118 102 102
217 235 256 270 261 218 198 169 146 146 159 171 177 167 156 146 147 150 173 209 273 342 398 396 460 433 332 181 153 144 130 126
265 278 267 243 207 191 160 145 156 178 203 193 166 166 174 180 192 204 216 230 245 243 261 273 303 219 187 155 124 113 123 94

GFSFLT1_con_3kmhel_033.txt.gz
Helicity
32 26 44 28 32 16 8 2 4 -9 -29 -29 -41 -42 -37 -21 -8 -39 -8 5 39 35 54 65 43 61 73 68 91 91 97 109
-3 13 60 33 50 46 26 13 5 -4 -20 -25 -30 -33 -38 -37 -25 -18 43 23 43 46 60 66 58 78 85 124 120 116 118 122
26 9 17 46 37 31 26 25 7 -6 -10 -15 -33 -28 -18 11 -6 4 49 54 67 65 73 81 76 109 167 144 127 121 126 127
48 23 27 24 25 46 30 26 29 13 -13 -9 -18 -24 -33 11 25 42 58 58 75 84 83 98 111 132 163 154 141 136 150 129
54 44 35 39 25 25 13 14 14 20 -1 -4 17 25 43 45 55 72 97 87 90 93 112 110 150 145 170 167 161 163 185 182
42 63 59 64 54 43 36 17 20 16 45 8 45 38 49 47 76 89 84 118 107 144 153 151 180 175 186 196 204 194 193 195
31 39 50 41 48 56 48 32 32 31 53 69 44 99 52 70 180 118 89 193 179 185 193 235 247 191 245 160 222 198 211 158
27 28 36 31 63 62 54 50 43 53 54 71 88 91 75 65 153 237 158 176 266 221 200 246 303 321 439 484 273 252 234 156
27 25 47 45 63 95 81 68 61 74 80 109 79 98 91 117 213 238 299 259 220 166 286 393 426 473 442 370 345 221 175 64
40 33 32 41 64 102 139 70 75 71 100 145 114 141 169 156 205 227 254 312 385 308 298 378 468 444 454 418 307 187 147 131
41 32 41 38 36 75 142 96 56 76 101 212 200 146 127 158 228 237 261 255 262 301 352 358 411 466 521 356 272 197 106 269
37 32 29 45 87 83 112 101 54 67 80 118 176 137 157 197 271 191 181 228 236 269 308 331 471 558 484 310 269 148 262 312
46 48 50 57 64 72 80 72 65 113 140 86 153 188 256 265 244 168 188 188 169 231 298 365 447 468 317 221 292 226 264 391
65 78 74 79 74 73 74 73 76 78 81 114 174 222 194 190 168 168 223 229 269 364 428 351 371 308 184 285 206 297 417 399
57 85 98 104 101 84 107 117 142 159 169 150 139 156 150 155 176 198 210 255 290 294 286 294 252 269 292 255 429 618 398 159
90 114 135 125 132 147 179 199 216 190 181 158 199 154 148 156 169 160 147 166 167 177 194 193 254 249 272 390 481 304 170 99
100 156 191 212 169 211 213 209 195 181 206 227 200 192 185 212 252 281 256 230 217 186 164 168 243 343 411 312 264 196 168 147
116 169 213 254 256 229 246 226 221 212 200 185 178 198 226 242 239 230 239 228 212 225 220 256 293 291 242 251 253 210 177 159
170 198 224 263 280 276 240 204 187 181 178 178 195 225 235 226 242 247 229 205 175 154 147 134 139 164 188 147 137 163 151 130

GFSFLT1_con_3kmhel_036.txt.gz
Helicity
66 63 32 25 -22 -43 -34 -70 -69 -91 -27 -71 -79 -118 -67 -54 -33 -19 -21 -26 3 -2 -4 167 137 82 90 103 118 140 140 92
82 51 76 33 -24 -24 -29 -75 -102 -82 -41 -28 -72 -71 -62 -45 -64 33 17 -24 66 65 11 186 123 80 111 113 198 205 133 175
97 106 67 93 64 11 15 13 -2 -17 -33 -62 -58 -33 -48 -41 -8 -8 76 -24 144 100 50 184 133 87 138 214 225 189 146 185
125 91 128 120 126 56 31 78 71 46 23 -16 -54 -5 -20 -11 70 34 1 54 126 128 96 164 166 102 204 265 232 188 178 234
173 92 102 132 139 95 58 70 70 39 3 -22 22 50 25 3 134 105 90 93 104 128 131 135 163 149 205 251 230 188 210 255
219 169 110 138 120 144 64 59 91 80 46 -22 33 82 40 34 63 161 144 175 144 132 125 202 202 230 271 302 230 185 245 299
156 188 143 104 98 85 105 56 80 59 112 67 5 104 77 45 138 172 250 170 148 220 226 308 406 372 350 353 361 393 446 405
108 171 201 169 145 157 130 109 55 64 94 144 111 44 111 79 63 206 298 206 308 362 372 386 477 398 367 456 454 544 474 413
124 77 204 223 213 234 215 183 131 84 131 167 191 136 126 120 35 109 307 293 389 386 326 333 404 542 482 432 549 502 488 343
151 62 93 197 243 278 267 213 151 90 121 190 160 230 209 182 64 74 331 431 455 363 325 374 336 404 421 501 549 497 336 262
39 87 97 146 204 293 339 347 211 157 118 196 224 386 374 228 96 84 352 440 373 318 316 300 404 374 424 472 512 422 377 202
48 41 43 48 130 169 268 444 242 218 178 215 311 351 414 191 116 312 358 288 223 235 247 366 416 365 431 479 467 368 185 257
53 39 31 22 38 110 161 185 164 180 157 301 228 256 227 293 328 309 255 229 208 218 283 349 344 409 422 448 374 286 338 229
108 69 63 70 89 100 151 212 233 197 121 227 198 340 336 320 325 292 236 204 187 218 288 360 443 389 317 316 297 256 243 461
88 129 113 100 110 142 188 202 172 136 153 221 278 301 187 187 204 259 304 303 317 343 385 451 377 301 246 253 190 244 372 308
87 139 218 176 193 213 222 245 248 223 234 333 330 207 177 199 232 231 236 235 256 272 287 286 265 236 221 199 277 318 291 262
110 115 256 219 215 273 316 299 300 294 311 321 310 232 225 207 249 246 224 221 218 233 213 209 213 213 225 306 333 270 252 222
166 220 299 259 287 365 367 290 292 350 359 286 286 303 312 293 281 294 319 300 243 219 216 216 302 286 308 296 276 278 234 181
313 343 325 373 345 299 273 277 272 256 273 249 234 220 227 252 313 326 294 278 274 253 237 224 217 197 198 174 175 178 145 111

GFSFLT1_con_3kmhel_039.txt.gz
Helicity
81 63 53 35 31 28 52 37 7 42 71 10 -23 -9 -83 -147 -76 -42 -45 -46 -61 -22 -17 33 141 143 118 112 107 115 128 135
70 42 37 19 0 1 -36 -70 -70 -32 -13 -52 -103 -169 -162 -139 -98 -54 -29 -23 -12 -2 37 101 176 175 123 130 151 161 187 180
137 82 85 25 1 -16 -48 -92 -99 -73 -104 -165 -208 -194 -211 -133 -101 -72 -37 -13 -5 11 54 147 161 178 155 163 216 237 201 204
171 146 115 85 31 4 13 -17 -56 -67 -75 -109 -122 -131 -114 -88 -88 -67 -21 -11 23 -6 68 163 142 152 167 191 274 286 239 224
246 184 126 136 70 30 11 34 -5 -20 -13 -27 -48 -55 -53 -37 -21 4 48 21 20 48 92 189 198 171 197 218 303 333 300 298
331 252 211 125 103 95 44 54 71 54 29 15 -18 -12 -14 46 67 83 78 95 85 171 126 188 234 237 293 407 371 403 414 329
352 285 230 208 144 108 86 83 64 58 56 40 15 24 30 73 118 129 138 149 184 221 190 236 249 402 449 508 589 382 523 437
323 285 271 215 245 207 146 115 120 114 85 63 63 63 141 165 110 172 187 195 176 190 232 304 385 480 473 475 449 502 410 461
327 372 338 269 252 266 259 199 169 176 175 143 80 107 127 148 199 238 209 185 150 208 286 337 385 458 487 475 441 394 404 477
215 372 361 322 321 311 312 290 223 192 229 198 199 173 137 257 295 274 159 390 299 171 327 358 416 469 441 417 388 407 474 455
117 327 334 327 366 405 413 361 301 263 228 256 264 265 234 281 301 203 174 265 362 313 377 417 401 370 374 344 388 445 456 385
68 123 171 178 327 363 395 434 391 195 71 124 144 299 344 317 374 397 243 229 330 345 347 282 306 325 336 353 382 396 390 329
154 95 143 148 138 231 356 475 517 385 216 97 191 435 563 383 399 354 211 315 301 277 233 262 301 344 332 340 350 346 303 305
177 89 53 50 86 169 181 460 504 331 205 12 213 326 255 216 262 274 288 295 215 209 244 274 312 323 329 312 285 315 254 300
193 194 104 72 99 139 245 255 273 247 178 338 365 340 354 389 335 313 271 252 257 259 277 318 329 323 282 247 263 249 246 255
155 201 194 199 188 209 260 314 403 353 399 384 378 380 360 315 275 275 284 292 290 300 341 371 360 314 270 249 249 264 284 237
187 238 296 333 379 330 302 341 387 371 356 352 346 321 312 310 289 278 288 275 245 277 302 296 289 262 243 252 268 279 264 253
253 291 314 441 482 420 383 370 408 423 427 445 425 404 374 355 336 312 267 270 254 249 251 246 244 263 284 298 301 271 259 213
360 399 477 575 607 506 486 415 385 399 431 434 412 395 396 393 357 335 321 268 241 235 252 264 295 264 289 267 257 215 190 150

GFSFLT1_con_3kmhel_042.txt.gz
Helicity
94 100 86 85 108 97 97 126 155 131 125 18 24 58 56 -91 -78 -44 38 -5 -51 -47 -29 21 104 122 131 135 132 107 116 104
71 74 88 88 64 77 104 153 103 96 7 -17 -73 -84 -106 -143 -139 -158 -70 -15 -61 -36 38 88 124 160 147 130 150 145 146 179
89 64 59 74 99 36 28 35 55 39 -3 -61 -81 -86 -145 -123 -168 -211 -95 -45 -33 -22 51 43 102 116 157 182 201 212 203 236
115 115 90 78 70 51 15 -1 11 10 -28 -80 -63 -97 -156 -185 -249 -256 -180 -77 -43 -26 -1 30 99 139 179 206 236 277 296 249
141 120 112 104 56 21 2 -26 -36 -16 -56 -107 -142 -145 -154 -200 -203 -178 -137 -66 -28 6 41 66 105 148 165 206 238 275 318 409
319 174 102 124 81 63 12 -27 -56 -61 -61 -84 -123 -154 -187 -190 -198 -147 -107 -82 -15 50 72 116 119 143 161 225 278 353 366 449
341 273 174 124 91 49 42 35 -30 -63 -36 -53 -48 -37 -47 -101 -124 -70 -54 -54 -37 34 85 138 163 189 218 272 316 393 430 426
322 246 240 184 197 168 119 134 95 37 28 9 17 27 18 3 -28 -23 -2 0 36 108 167 169 134 187 255 340 384 405 403 387
358 345 332 282 254 224 193 189 151 148 135 93 59 40 21 -21 -26 20 70 81 111 239 222 178 192 202 264 391 449 427 411 370
299 307 354 348 297 270 288 251 227 216 204 153 124 109 116 88 71 138 214 178 148 272 222 254 204 274 290 445 491 413 417 390
250 262 291 315 335 346 334 291 300 303 239 178 134 116 136 145 174 219 259 283 282 197 133 209 223 220 372 464 428 391 401 382
245 305 299 332 288 331 368 327 298 263 294 242 317 242 204 260 306 325 368 415 305 22 80 173 204 279 321 347 373 372 363 350
170 285 318 326 308 283 330 399 383 362 393 283 292 290 383 435 339 352 488 287 261 80 105 145 222 329 323 295 335 320 330 332
128 154 179 231 193 210 316 404 469 486 568 566 471 298 315 357 379 344 430 322 204 204 210 252 250 255 291 305 316 303 295 305
142 162 179 180 163 153 173 267 322 419 494 525 372 279 262 176 218 370 338 291 300 253 248 262 274 303 288 302 298 263 275 277
162 150 191 211 183 188 166 186 210 346 411 345 249 174 166 170 356 412 328 264 263 281 330 332 312 310 302 293 264 286 296 269
170 129 212 303 292 305 323 304 282 320 295 236 250 249 291 324 317 349 339 340 354 349 332 336 337 314 276 264 262 260 272 280
155 201 238 346 394 402 383 438 443 408 336 370 389 399 378 397 394 401 368 347 324 299 308 317 325 295 247 249 285 315 319 309
187 226 323 348 485 513 504 523 443 481 459 454 445 439 444 415 370 328 339 290 293 296 309 297 301 281 290 339 407 386 373 354

GFSFLT1_con_3kmhel_045.txt.gz
Helicity
84 103 89 113 109 81 181 208 108 81 181 309 337 323 273 221 230 127 143 90 159 68 67 -9 -11 28 49 100 91 90 89 98
90 91 102 118 128 159 139 145 161 157 130 167 225 111 67 109 96 46 38 151 122 66 1 -32 19 9 68 90 125 136 129 144
92 99 116 112 139 126 143 155 149 42 -34 24 31 -64 -66 6 27 66 -60 -6 37 2 -25 27 57 103 116 156 168 182 142 161
106 102 107 109 124 121 107 99 89 72 39 -25 -72 -162 -131 -144 -118 -163 -116 -10 3 5 -26 -62 60 115 130 164 198 214 221 184
127 124 114 132 117 112 101 92 49 43 4 -33 -82 -82 -107 -122 -109 -137 -153 -100 -95 -15 -13 -47 114 130 135 164 204 239 266 273
232 201 136 100 109 120 75 69 30 24 -10 -65 -89 -108 -136 -149 -206 -253 -276 -267 -235 -118 -59 24 118 153 151 178 208 260 272 281
144 170 123 75 71 85 92 74 35 10 24 11 -16 -41 -76 -94 -141 -185 -243 -272 -228 -129 -71 38 98 151 165 186 238 255 277 283
171 159 182 164 143 112 131 123 96 55 30 6 3 -7 -19 -46 -90 -111 -158 -167 -146 -91 13 64 135 169 171 224 237 216 296 323
244 232 211 183 197 171 178 156 103 113 100 42 13 -8 -44 -59 -82 -99 -80 -90 -92 23 51 120 180 218 147 147 205 183 215 261
261 306 258 217 204 217 229 228 168 152 155 138 97 64 31 -7 -37 -79 -75 -42 35 60 76 124 194 220 132 169 160 169 240 293
239 291 315 310 296 273 235 208 222 228 195 157 139 129 68 55 100 72 26 22 76 112 181 196 199 200 186 170 226 223 265 302
172 299 332 366 320 306 309 234 249 229 240 266 228 154 169 162 130 119 207 246 206 196 211 156 169 75 115 155 149 186 218 331
158 239 307 332 342 348 377 334 310 363 383 411 445 306 261 208 243 392 358 409 259 265 294 141 60 -60 0 61 172 244 274 350
128 221 240 313 365 366 373 387 316 391 452 520 560 535 411 263 201 378 333 292 282 463 171 -84 -23 51 131 194 252 294 311 316
72 98 163 221 265 306 373 346 335 375 440 497 508 532 480 315 263 268 318 380 358 318 211 209 139 196 196 243 267 294 309 301
71 64 85 197 178 188 220 224 259 354 400 430 450 417 406 351 329 291 296 305 311 333 310 286 245 282 301 300 295 316 321 318
109 103 107 190 163 148 169 179 219 329 380 381 406 448 447 373 292 322 333 321 347 377 365 371 354 317 292 300 332 323 295 292
94 140 205 187 204 222 218 228 287 291 299 367 354 391 352 363 342 329 318 392 384 363 352 350 334 301 296 311 335 324 320 340
127 110 203 274 305 323 363 340 364 375 340 355 341 352 362 372 389 370 378 360 350 353 354 310 326 318 322 352 365 387 418 444

GFSFLT1_con_3kmhel_048.txt.gz
Helicity
63 58 86 97 61 50 142 136 178 182 94 128 188 144 251 198 73 67 98 104 79 64 76 88 104 75 80 94 89 76 57 72
79 61 61 83 90 54 64 124 132 149 143 199 236 247 313 350 191 106 118 95 90 88 92 88 85 63 60 85 110 86 84 100
107 86 71 82 99 85 71 65 121 170 161 203 253 244 315 372 161 166 150 104 114 112 137 90 54 1 16 101 124 128 109 122
142 138 110 74 103 108 95 76 59 2 6 93 278 321 282 309 87 112 71 166 161 91 27 38 -29 68 55 121 146 153 150 138
168 158 147 104 80 101 113 94 95 56 11 -3 55 88 59 5 -79 -50 -45 -32 -12 -27 -4 34 40 110 108 114 148 173 199 192
189 195 178 120 102 87 107 122 84 75 64 65 48 66 28 -94 -156 -103 -114 -24 20 14 12 4 39 93 106 129 151 171 227 243
145 152 171 138 146 125 101 118 105 85 57 23 26 7 -37 -124 -168 -153 -171 -158 -129 -180 -124 15 29 76 124 150 173 198 216 245
164 208 205 201 180 158 143 128 93 75 76 66 48 28 1 -52 -113 -164 -191 -232 -260 -196 -92 -19 33 63 111 177 198 184 198 216
150 214 198 212 217 216 174 165 133 125 98 79 45 15 -16 -53 -93 -105 -112 -133 -132 -123 -143 -70 8 55 110 168 188 153 138 187
116 165 215 211 214 238 254 210 155 153 153 105 95 74 68 35 19 -1 -40 -43 -39 -21 15 37 71 92 133 154 178 116 77 103
70 138 178 185 207 218 237 249 255 209 167 160 143 136 113 88 79 59 36 36 21 46 69 88 113 120 92 103 154 179 193 19
69 90 136 182 155 212 248 250 275 271 264 255 225 211 214 212 178 158 147 82 150 108 111 148 105 119 175 213 166 223 56 143
81 104 132 149 178 195 226 260 276 283 319 324 290 247 214 227 214 214 212 79 232 158 192 102 73 212 244 273 141 53 82 126
91 106 127 151 199 233 270 280 274 319 341 366 371 386 379 347 333 272 79 206 116 17 80 68 149 355 310 20 -4 42 66 126
45 84 111 134 179 236 233 227 263 270 329 392 419 476 508 454 368 216 123 171 146 130 204 235 161 290 243 156 150 139 182 255
53 81 112 114 141 178 189 161 181 225 224 278 362 429 424 397 308 248 206 186 213 197 219 228 255 237 220 234 218 230 252 266
64 68 107 127 142 182 194 154 187 226 211 229 233 272 344 315 260 234 219 229 196 210 252 301 351 321 291 266 273 299 307 308
61 87 113 142 147 198 209 187 245 241 217 214 246 273 307 287 252 240 236 276 306 289 301 332 303 283 246 261 291 326 335 344
102 103 91 94 137 255 273 239 240 251 238 280 306 293 307 306 320 322 372 375 339 323 308 346 316 274 288 330 377 380 415 422

GFSFLT1_con_3kmhel_051.txt.gz
Helicity
38 59 70 76 93 16 148 187 115 176 123 43 110 157 85 34 -23 -49 -20 50 35 54 64 72 79 61 45 67 63 69 62 64
55 38 56 68 73 71 100 132 216 258 164 134 69 92 101 -25 -94 -99 -36 -6 7 32 83 74 71 48 58 57 88 67 72 69
76 57 45 50 46 78 93 74 154 223 147 146 1 91 36 -41 65 -24 -15 9 46 40 82 72 69 86 62 72 62 93 80 74
109 92 65 63 46 57 69 80 52 68 144 218 129 173 200 134 157 87 31 81 46 58 61 81 93 76 54 64 58 74 84 95
119 102 88 74 66 39 55 76 141 79 116 129 180 154 212 172 181 219 201 150 138 102 64 73 102 90 46 69 68 66 91 92
163 127 105 71 66 70 52 58 87 123 133 65 60 79 118 215 203 109 90 -32 -43 -74 133 116 95 81 38 45 93 94 103 107
111 108 130 90 55 66 43 43 48 79 115 127 75 161 150 177 144 105 45 -27 31 20 99 100 95 72 33 35 49 87 99 109
107 151 149 145 112 95 98 52 31 45 79 81 105 126 129 144 124 103 49 -80 -73 -77 25 55 78 61 46 31 41 54 101 112
103 156 153 126 139 122 117 102 52 63 49 46 55 67 55 39 32 9 -12 -64 -57 -20 -3 -1 -11 -9 4 25 36 28 75 72
55 90 113 122 114 149 148 120 81 67 63 46 54 53 56 34 5 -41 -27 -85 -83 -102 -103 -127 -106 -85 -28 34 71 85 71 60
25 55 85 93 87 89 109 113 124 118 77 61 64 66 64 68 68 55 33 -12 -37 -62 -70 -20 -0 3 10 56 112 104 81 141
37 44 49 53 80 105 123 109 105 101 121 121 121 123 118 110 104 88 104 106 135 124 135 113 118 110 137 152 132 134 206 165
30 59 76 76 70 90 120 143 155 171 161 158 181 184 176 148 120 85 97 117 58 62 124 149 150 153 140 177 183 230 251 234
30 44 68 71 77 89 110 153 205 229 229 227 222 248 228 211 211 219 229 175 155 139 132 162 207 107 123 173 185 234 209 215
26 46 55 75 77 81 104 133 175 215 214 251 253 272 290 287 255 235 232 197 186 164 147 131 123 87 90 109 94 117 160 118
37 45 57 70 69 100 91 109 166 222 193 180 206 217 215 229 257 248 238 205 211 203 141 77 71 76 100 133 146 184 215 205
28 37 41 67 99 108 80 114 172 188 173 150 103 152 174 212 240 263 238 196 161 151 164 123 112 136 127 190 274 217 205 273
31 27 47 89 100 117 116 148 176 197 156 107 121 154 170 193 188 175 204 164 134 131 111 117 151 172 209 276 345 298 303 339
75 65 45 43 99 110 112 119 168 196 134 137 132 157 153 139 149 143 159 154 153 180 201 251 291 272 242 276 336 343 381 399

GFSFLT1_con_3kmhel_054.txt.gz
Helicity
79 74 66 85 111 117 38 56 88 106 149 186 188 231 277 345 307 275 161 82 21 56 73 42 21 19 19 15 16 38 48 59
92 86 61 75 82 103 92 141 117 107 99 74 84 51 105 169 263 171 -4 -59 -63 19 52 39 31 26 31 33 33 45 67 76
90 91 92 67 84 82 138 153 103 114 97 102 91 98 64 31 0 -32 -20 -54 -48 -6 1 24 25 34 52 55 56 45 57 75
105 93 80 78 84 125 118 201 156 147 123 59 149 240 169 -39 -115 -197 -123 -116 -77 -18 -4 35 25 39 64 57 47 43 42 57
107 117 92 80 78 101 117 164 171 128 170 138 162 208 225 116 -100 -156 -121 -117 -87 -42 5 18 23 47 82 62 47 45 17 48
104 83 97 80 80 91 99 118 139 180 146 128 193 90 41 75 45 -1 39 -61 -69 -27 27 13 -3 19 53 30 34 42 39 8
70 71 109 109 86 73 80 84 98 176 205 153 183 150 78 53 32 -26 8 71 20 29 -23 29 -24 58 79 65 53 49 61 58
62 109 126 129 111 88 83 91 75 75 116 147 174 109 155 167 134 128 78 123 108 79 32 41 78 81 111 105 67 47 33 40
29 96 108 106 109 99 79 84 84 84 69 56 63 89 55 81 123 128 88 129 144 89 122 41 28 37 74 50 37 33 30 40
20 51 104 96 102 119 90 68 63 71 58 38 33 34 32 61 76 93 95 124 133 95 29 25 0 16 31 61 52 45 53 54
32 49 69 99 81 87 79 49 58 65 53 41 37 48 39 21 37 79 123 107 124 128 126 120 121 117 115 107 106 101 109 130
20 34 58 83 89 82 85 76 57 58 63 57 43 46 47 41 30 17 37 81 123 110 113 94 107 157 205 175 151 155 183 188
12 19 45 78 95 95 98 92 93 86 82 83 72 57 62 69 72 74 58 51 38 45 63 64 55 66 106 147 146 172 163 151
17 14 31 57 77 82 97 112 114 111 113 129 118 111 118 115 110 95 94 90 79 83 44 78 63 62 131 169 162 202 137 161
31 17 22 19 46 65 67 64 75 115 130 149 156 168 168 161 122 91 106 116 114 101 113 111 103 87 129 83 201 196 97 100
40 19 23 18 44 53 69 75 89 110 138 147 160 187 152 127 132 103 101 122 135 109 115 128 106 88 123 126 137 133 112 128
56 75 11 26 48 42 59 68 87 128 105 122 100 86 97 103 97 81 90 114 142 152 148 160 168 173 167 185 208 151 106 119
57 95 86 26 36 56 63 86 77 85 96 96 90 86 75 62 68 86 97 113 117 156 179 149 124 127 205 212 132 107 130 168
10 57 117 108 37 14 31 53 66 100 101 83 111 101 91 97 104 100 97 111 129 135 176 159 150 138 163 199 234 260 343 338

GFSFLT1_con_3kmhel_057.txt.gz
Helicity
105 87 77 114 159 172 80 34 49 91 131 218 475 602 389 223 255 78 97 53 42 122 127 125 89 69 34 15 15 7 25 31
150 131 80 99 126 150 132 88 73 74 128 168 156 213 207 267 199 -42 71 73 77 140 97 101 74 63 40 26 20 23 37 43
147 153 91 75 110 139 163 173 149 82 86 47 132 172 189 194 293 268 153 204 38 89 130 86 24 64 40 22 35 41 34 51
143 159 134 78 113 142 152 183 153 56 62 73 81 35 59 249 227 261 266 161 37 22 34 -1 4 38 39 43 47 39 60 41
114 155 153 122 83 142 153 161 163 84 110 104 142 143 147 95 121 113 71 18 41 -14 -58 -56 11 -4 41 45 41 46 51 40
83 142 145 156 131 139 132 169 169 143 103 125 68 78 79 119 168 86 -20 -132 -98 -123 -70 -63 -13 -2 37 40 62 65 81 42
68 115 144 172 157 163 131 150 169 151 121 111 116 94 98 141 164 76 11 -64 -54 -63 -33 -26 -32 -43 -2 18 38 71 51 27
54 101 139 164 174 152 136 120 152 193 163 146 127 103 158 113 147 149 21 -25 0 5 -46 -45 -47 -56 -26 14 -1 39 44 36
24 50 115 137 164 144 146 120 103 172 189 155 115 92 110 44 108 103 66 26 72 84 53 36 56 60 60 75 95 38 79 114
23 34 83 123 153 152 125 122 95 113 139 140 116 78 67 57 51 67 81 66 52 29 98 132 131 129 127 165 184 158 149 148
64 44 65 104 129 122 116 97 110 100 97 113 110 105 96 59 30 66 79 72 64 93 86 130 151 120 137 130 167 145 140 151
26 30 42 79 95 114 121 99 105 112 125 113 92 86 80 63 45 40 49 66 90 84 119 121 145 143 118 127 133 120 138 148
38 31 22 45 86 97 111 102 102 99 122 134 128 106 101 99 81 64 67 59 61 76 83 114 114 109 93 105 116 136 140 156
16 12 13 25 42 70 88 98 110 119 106 134 155 153 136 135 135 111 106 105 106 89 110 133 145 146 107 125 129 137 176 203
49 35 14 20 29 58 72 80 110 124 132 140 147 177 204 181 158 148 145 148 147 155 152 149 149 153 169 191 194 148 153 205
160 131 85 52 40 38 59 67 103 122 113 135 163 232 222 170 150 139 146 152 192 195 195 195 184 192 211 230 233 215 254 255
149 189 224 159 157 40 50 53 81 126 120 125 148 194 226 228 221 214 194 180 168 174 188 205 226 264 268 279 248 277 277 243
26 34 59 110 196 171 52 37 42 59 118 111 126 196 177 197 219 198 194 198 192 157 171 211 227 253 321 353 333 288 277 279
19 -31 -67 8 118 177 176 86 43 39 69 98 118 135 147 178 185 172 167 176 160 172 168 176 196 212 259 320 302 264 238 295

GFSFLT1_con_3kmhel_060.txt.gz
Helicity
160 137 148 242 178 177 186 130 85 87 102 130 159 197 315 511 394 227 121 213 59 90 136 65 134 130 165 103 74 48 64 42
247 234 173 273 171 158 166 162 135 113 113 178 255 260 532 435 210 161 108 98 47 187 133 147 200 148 140 109 99 57 62 23
296 310 159 196 199 139 167 167 161 102 99 147 288 341 338 258 277 257 207 53 100 167 134 121 133 114 72 85 95 67 62 39
311 326 154 163 238 205 168 180 185 139 72 70 133 178 176 166 223 235 275 211 165 46 16 72 51 109 117 121 62 58 58 57
264 314 222 147 229 213 187 165 190 159 89 88 127 128 169 145 179 221 187 160 93 -24 -44 -70 -53 -37 236 106 62 62 68 91
198 302 254 165 166 270 187 154 186 205 167 92 88 89 124 172 147 177 154 81 103 85 -69 -56 -44 -36 -43 29 50 58 66 65
128 235 265 253 155 253 225 161 154 211 206 158 133 101 98 98 88 111 135 96 70 61 16 -70 -35 54 14 25 48 86 53 1
111 250 274 253 217 264 232 179 140 199 229 219 157 95 114 122 146 146 89 35 30 -30 -87 -93 -66 -16 -43 49 128 76 81 32
80 159 256 249 275 285 210 197 125 138 186 203 173 124 105 129 118 133 107 90 60 11 -76 -115 -88 -75 -39 -44 26 87 81 61
120 82 205 246 304 297 238 182 160 124 135 184 181 174 163 181 124 111 135 112 84 -1 -83 -30 -7 -21 -5 69 80 117 115 139
92 94 183 220 283 304 254 186 142 195 133 131 161 166 180 158 133 137 125 116 81 38 -42 -20 43 38 79 70 82 85 152 166
38 28 96 195 274 293 306 190 161 171 242 154 117 132 135 150 134 140 131 106 120 77 52 33 25 30 47 105 90 114 143 182
23 41 49 73 218 247 304 232 142 177 236 227 160 128 120 141 137 115 107 96 92 106 115 98 73 94 110 143 145 159 188 188
58 52 -1 5 76 146 227 320 221 137 198 267 242 194 187 159 145 149 136 101 128 124 134 142 169 160 165 193 208 197 203 215
96 131 102 229 35 68 111 222 301 214 144 215 276 265 230 199 187 169 163 157 152 169 181 175 173 197 236 238 247 261 271 274
140 165 189 167 196 258 68 121 217 305 207 157 211 281 242 195 175 185 203 189 192 189 199 205 217 237 222 244 297 304 287 273
87 132 140 150 190 237 282 326 127 214 261 224 167 186 222 223 221 241 236 228 220 228 230 244 254 259 261 297 321 315 292 277
78 103 125 101 141 193 194 260 303 159 176 228 222 179 181 206 250 264 265 275 297 287 270 275 249 245 254 275 300 287 283 306
-9 1 14 -2 -3 26 92 112 138 226 185 132 177 216 202 204 243 269 264 280 309 307 286 290 270 225 200 216 263 269 259 253

GFSFLT1_con_3kmhel_063.txt.gz
Helicity
263 324 367 323 215 175 171 155 152 115 40 41 108 133 129 186 227 180 151 155 118 124 99 55 31 18 60 100 82 99 91 75
296 367 415 358 266 202 173 156 179 165 144 73 79 104 259 330 202 181 193 110 127 167 133 85 82 66 93 95 101 101 94 104
430 460 430 370 278 207 206 173 175 153 112 98 110 143 124 114 219 189 105 190 174 274 257 158 130 135 186 135 147 160 91 119
437 438 409 349 287 208 201 177 177 161 154 142 163 239 252 203 220 106 98 173 213 295 279 161 146 66 30 96 140 124 102 71
396 444 347 337 278 229 209 178 188 167 200 154 168 189 202 187 168 96 46 106 318 235 192 74 15 19 121 147 156 165 166 48
399 391 347 308 326 262 228 195 202 170 181 178 160 144 122 172 127 38 102 132 166 171 226 91 56 107 110 100 114 74 130 47
323 303 351 264 297 290 238 202 178 175 168 194 193 159 118 92 77 97 46 52 43 167 229 216 139 -98 -103 -29 17 93 134 57
316 328 308 289 320 283 264 207 172 170 182 181 198 177 139 153 146 135 75 75 120 82 84 157 126 -39 -74 -1 92 159 97 -13
249 242 272 292 339 298 254 237 191 143 169 190 192 192 154 119 145 129 106 138 148 103 83 9 -15 -35 -70 -59 -13 41 49 3
147 247 270 268 332 358 289 262 234 178 140 167 183 194 199 184 139 125 118 165 137 111 66 50 4 -28 71 0 -13 37 197 80
161 150 213 294 354 406 336 272 257 219 163 120 140 176 183 152 153 180 153 149 143 120 112 81 61 5 -13 -7 18 48 113 55
94 109 207 275 360 427 376 304 235 223 191 163 120 140 147 138 152 165 165 127 132 148 114 74 56 45 68 73 64 66 63 85
314 388 210 138 329 364 379 338 290 245 215 189 171 155 151 146 142 142 148 138 114 132 129 108 82 48 5 46 115 121 139 122
220 272 257 227 165 111 305 362 346 306 309 251 222 198 173 156 161 147 100 109 132 128 112 120 104 93 62 34 86 152 187 174
111 151 176 233 243 231 152 104 152 302 382 338 293 283 262 206 161 124 144 145 140 125 149 151 129 114 84 93 139 185 213 231
122 57 61 120 196 254 260 207 103 154 237 299 373 357 318 275 238 189 157 178 185 175 154 159 168 168 177 179 184 197 209 212
65 73 75 41 87 107 136 198 227 314 100 187 268 376 407 371 316 276 238 189 179 202 184 210 227 233 204 261 297 253 239 252
41 27 58 81 84 132 162 153 146 181 202 235 124 225 361 378 399 353 294 262 262 236 223 231 226 250 238 249 250 258 297 310
79 36 26 43 62 108 149 135 110 119 117 156 218 316 197 207 380 388 391 358 326 305 282 280 279 284 302 297 288 306 296 277

GFSFLT1_con_3kmhel_066.txt.gz
Helicity
259 287 348 325 242 175 175 155 152 129 98 65 68 65 71 113 123 154 149 162 173 171 183 202 184 108 77 50 58 87 84 114
329 343 372 350 274 229 199 196 136 135 96 101 67 89 61 106 159 140 226 194 180 156 144 186 185 114 49 35 67 54 105 118
349 359 375 370 300 246 194 217 171 132 101 74 98 102 113 130 188 167 200 119 106 166 183 177 112 109 101 64 74 149 125 131
377 359 362 374 303 273 224 218 206 137 93 74 57 93 174 224 137 227 273 188 120 123 110 146 65 116 88 89 81 154 152 181
378 424 332 321 264 244 244 218 214 156 109 61 67 101 178 126 2 57 243 139 137 125 157 241 177 148 157 143 150 142 203 149
363 414 333 309 263 220 234 226 218 189 168 122 50 25 68 35 -1 -7 102 196 172 183 227 202 216 256 227 186 157 179 205 208
300 331 295 305 245 226 213 240 221 228 177 177 130 94 32 94 114 80 69 69 228 178 231 195 241 255 177 52 2 111 143 178
353 338 297 284 270 223 184 224 230 232 213 163 154 159 120 88 84 74 -11 -27 15 125 218 150 136 132 60 94 18 160 162 159
334 262 259 270 272 223 180 201 214 220 225 192 143 151 153 110 62 19 53 57 116 139 172 122 39 126 109 57 111 68 108 94
243 158 195 239 238 228 215 181 193 214 199 198 181 115 127 108 71 57 90 73 48 47 92 158 144 126 112 39 34 15 20 26
120 141 134 147 204 182 182 171 172 201 212 195 169 173 99 63 100 103 106 78 49 1 39 69 102 96 96 95 114 54 25 29
89 70 31 71 98 176 186 169 162 162 179 208 199 168 158 118 95 106 115 95 94 81 50 32 38 48 49 51 73 91 52 64
283 145 81 46 49 91 82 69 137 221 192 179 189 203 196 195 183 129 104 126 128 132 104 90 86 56 28 45 20 20 19 27
442 430 354 241 130 -20 19 35 60 85 146 203 187 180 186 220 232 212 190 144 108 120 146 150 113 90 68 76 82 78 71 61
312 356 343 307 261 224 196 173 75 17 125 159 203 235 255 222 198 207 225 201 161 137 119 110 119 127 123 124 126 116 115 90
166 209 239 253 233 224 217 201 168 173 62 147 159 160 168 197 220 202 206 214 224 192 151 127 118 113 122 126 126 128 113 93
17 72 127 167 205 190 185 224 234 164 151 209 126 87 149 192 215 240 261 254 245 222 212 206 199 207 177 197 209 184 179 179
89 81 114 134 136 157 191 196 200 213 202 177 185 194 192 96 127 193 247 268 297 290 256 222 174 205 220 262 275 247 225 211
111 53 79 153 160 126 69 93 147 156 167 197 205 220 159 151 178 187 119 207 247 285 300 310 285 268 250 330 336 283 279 265

GFSFLT1_con_3kmhel_069.txt.gz
Helicity
369 411 295 243 176 175 176 151 178 158 178 113 52 41 80 79 80 118 152 109 129 167 147 193 180 191 241 220 183 275 226 185
394 366 319 259 223 188 164 159 181 182 179 120 62 42 60 77 77 100 127 146 117 164 147 169 182 165 185 167 240 272 249 191
346 355 306 289 235 181 174 152 172 194 196 120 70 34 45 54 97 114 163 170 200 169 197 164 156 139 147 188 272 273 219 156
348 327 314 289 265 208 179 158 173 183 258 198 110 119 114 94 123 179 173 204 229 187 166 203 160 218 151 153 201 191 207 141
357 356 320 295 273 208 186 163 153 188 262 187 97 48 70 115 177 176 177 177 200 220 131 157 200 203 168 128 133 157 136 149
336 349 334 300 276 225 213 148 133 170 196 179 82 42 46 152 198 123 136 268 228 223 124 163 153 167 111 151 115 138 154 146
235 355 354 319 250 230 203 181 135 133 143 153 120 66 60 107 127 145 -17 94 225 201 133 144 166 165 138 183 189 167 196 164
267 371 325 311 281 255 190 187 144 130 116 89 86 81 56 65 117 107 116 38 254 175 161 189 240 281 196 203 206 216 261 173
275 325 319 286 263 264 192 180 145 132 136 102 42 24 77 59 76 75 40 62 56 178 273 273 219 258 289 242 221 212 101 46
253 275 243 257 245 232 205 180 142 124 128 131 113 57 22 82 76 25 30 -18 -31 120 168 153 179 243 231 274 206 127 7 102
156 184 167 169 179 156 139 135 139 98 108 108 116 115 64 53 85 70 2 -18 45 121 190 165 113 59 34 49 -25 -25 100 25
171 152 106 179 172 126 128 122 97 78 96 103 93 105 100 80 71 80 86 31 21 90 144 164 167 152 126 125 100 70 88 91
204 156 53 7 29 49 74 105 114 117 103 111 120 120 119 123 92 63 58 72 92 74 46 56 83 110 161 208 199 196 176 146
482 421 357 269 155 101 108 87 81 88 107 102 110 145 150 139 120 108 103 98 86 78 109 126 103 72 66 80 95 93 111 128
474 464 385 340 330 313 269 252 184 88 38 120 139 140 179 180 178 165 165 167 147 136 112 114 113 117 111 100 90 91 92 111
351 379 359 312 283 251 224 227 186 162 177 166 92 83 136 158 167 189 213 230 222 205 200 161 132 127 126 124 124 126 108 117
341 245 271 268 253 237 210 200 178 148 133 147 153 201 205 103 84 157 179 194 216 226 225 229 214 205 183 191 193 181 182 188
107 131 72 93 110 130 151 156 175 184 195 196 182 181 175 168 162 191 133 106 143 199 236 251 248 228 231 303 311 217 196 214
97 100 33 63 90 110 103 140 157 171 189 195 180 193 190 184 189 176 149 137 152 150 110 168 211 237 247 296 362 338 271 230

GFSFLT1_con_3kmhel_072.txt.gz
Helicity
87 239 331 273 232 192 157 177 177 161 147 152 147 93 71 82 57 83 100 183 270 281 208 157 212 195 158 193 199 241 209 171
223 307 344 319 230 229 167 189 170 185 149 134 135 105 75 80 72 82 180 239 349 194 154 144 214 195 165 208 199 221 268 235
209 296 342 292 251 208 174 165 174 186 158 93 108 91 58 60 76 84 93 124 182 215 150 127 168 212 159 216 271 290 298 214
171 241 301 294 230 240 173 170 179 184 175 162 132 101 68 71 82 101 119 106 124 171 151 137 135 182 211 270 216 257 357 203
192 239 268 270 224 212 173 175 173 197 205 180 121 57 46 51 89 106 125 172 144 172 178 146 145 162 156 142 210 241 324 275
165 216 257 230 228 196 175 175 165 192 175 188 152 79 51 42 73 90 126 181 208 203 188 174 125 173 186 160 218 190 244 253
152 172 231 213 185 150 185 158 134 149 158 170 160 134 94 75 75 109 92 127 191 186 213 214 204 209 203 194 208 180 147 160
206 257 233 200 197 189 192 156 123 117 142 127 124 126 104 69 76 94 99 93 130 200 206 181 151 178 201 235 212 197 251 159
160 228 235 240 201 194 172 164 102 93 96 88 82 92 109 103 81 71 86 59 -7 115 159 191 177 151 175 239 221 245 205 198
117 210 216 228 180 176 140 148 88 57 49 50 65 69 76 77 79 84 84 50 -17 59 149 198 206 215 228 260 241 146 156 131
138 180 168 139 109 152 144 129 79 61 45 35 31 45 56 73 89 76 63 51 30 49 70 92 177 217 181 212 245 250 231 216
58 163 133 115 119 140 123 99 80 60 55 38 43 44 45 50 66 61 54 52 44 76 94 111 119 119 142 172 158 243 247 203
161 95 140 108 107 99 82 85 64 56 75 63 56 57 48 60 67 73 58 41 24 46 100 134 150 135 136 126 100 100 131 120
401 464 433 338 273 204 158 150 96 54 44 52 59 79 84 81 71 69 73 78 86 88 95 119 136 140 166 186 196 190 198 178
349 431 469 447 432 372 337 267 182 123 30 45 50 68 84 91 94 97 97 102 92 95 117 136 147 159 184 186 170 164 180 190
366 340 352 378 363 339 291 246 223 182 227 193 159 108 43 54 87 100 103 108 96 105 118 123 132 137 155 177 204 245 248 233
315 342 319 299 276 263 288 289 185 221 182 184 169 168 165 180 199 192 83 86 125 128 121 127 152 181 178 200 212 180 171 181
362 400 351 215 188 146 156 167 128 139 138 147 156 151 144 156 159 162 171 176 172 204 165 122 141 169 199 224 261 251 215 215
108 242 407 117 124 94 79 94 96 121 141 147 158 163 154 147 142 154 155 157 156 149 154 169 159 169 292 277 262 170 243 270

GFSFLT1_con_3kmhel_075.txt.gz
Helicity
57 57 92 152 173 193 196 171 174 143 137 127 144 123 80 67 72 97 78 177 150 255 218 219 271 184 187 166 122 100 89 102
67 74 130 193 215 226 209 202 186 182 146 151 148 128 56 51 59 38 79 98 123 270 301 228 167 136 156 201 169 155 130 115
47 60 95 187 259 252 213 199 193 163 124 148 133 125 27 23 14 14 17 131 186 336 307 252 140 123 119 168 198 155 147 116
32 78 109 167 244 261 238 207 178 155 138 131 144 112 45 42 47 83 129 190 279 218 214 173 133 145 172 177 207 181 197 148
60 60 71 134 196 213 196 198 184 153 140 152 143 107 73 15 51 59 108 97 99 184 154 163 136 150 150 167 186 194 231 164
29 -18 26 95 158 194 201 172 180 161 116 135 107 69 30 33 -3 40 65 120 75 79 128 160 120 112 152 172 183 187 163 204
46 21 64 93 119 168 192 193 170 158 115 103 101 86 79 73 51 24 56 80 104 114 126 164 156 184 148 171 165 177 194 177
103 84 59 87 125 178 188 168 163 145 107 92 98 89 73 64 50 47 52 76 55 138 110 152 138 197 175 188 185 206 214 229
99 71 66 86 114 155 173 191 154 111 81 78 72 64 50 33 42 47 49 58 10 72 160 153 168 221 121 150 201 200 226 237
60 51 66 75 108 114 136 149 139 82 45 49 62 55 42 31 31 32 40 49 51 -45 33 119 142 143 144 152 184 229 285 261
91 74 86 65 114 105 108 97 103 85 54 36 42 44 31 22 20 20 32 36 28 -1 -20 51 121 159 116 179 153 196 298 314
138 96 91 94 130 106 94 106 116 93 68 52 46 36 28 20 18 24 36 36 31 21 4 24 44 85 108 162 118 134 154 125
280 101 132 196 192 152 124 139 148 129 109 86 63 49 37 23 13 7 6 21 39 45 48 46 59 57 54 67 81 94 136 162
319 458 421 456 313 283 322 334 307 185 93 90 76 60 58 41 29 17 9 0 5 17 35 60 76 66 81 98 91 84 86 62
384 479 443 463 412 444 408 397 350 173 103 112 105 81 75 72 49 45 40 23 6 8 17 25 36 60 93 97 83 84 90 95
377 455 465 386 366 369 382 381 259 222 212 177 140 132 123 114 101 67 51 60 47 40 37 30 28 40 75 101 127 132 119 117
288 303 387 391 359 331 324 317 330 254 183 180 152 152 135 138 125 113 121 144 147 107 65 56 69 164 284 200 57 98 158 161
378 352 392 408 420 358 339 330 265 244 307 115 172 146 130 129 126 135 150 149 144 160 189 208 230 283 268 243 207 140 127 141
346 439 355 300 210 215 222 270 297 277 163 142 136 126 133 137 144 152 167 171 189 189 195 204 199 200 223 194 156 97 117 122

GFSFLT1_con_3kmhel_081.txt.gz
Helicity
12 7 41 44 76 101 139 112 109 118 162 129 134 174 144 149 154 127 65 75 101 114 194 248 208 159 143 163 135 90 110 151
7 3 54 63 87 112 121 122 136 162 153 134 143 147 133 127 129 108 95 65 63 90 201 251 188 131 188 241 129 96 86 131
-0 7 82 41 80 106 133 122 136 169 136 120 153 143 114 111 113 86 39 38 43 89 277 266 250 164 209 191 228 105 124 184
7 14 89 46 47 95 122 126 139 153 141 137 158 150 132 121 104 74 28 16 22 60 187 263 230 187 168 123 132 133 148 136
8 12 97 16 43 71 98 129 140 125 143 140 133 146 121 100 91 35 16 24 49 126 168 325 282 203 202 130 104 79 97 117
9 -14 40 68 72 89 114 124 119 101 95 127 87 87 96 112 109 62 47 89 92 122 150 306 244 229 227 205 133 46 61 104
8 7 3 112 77 101 98 120 137 86 91 110 84 117 106 142 133 99 77 84 93 133 153 274 198 254 181 121 99 49 48 96
105 73 58 110 97 99 98 135 131 103 109 94 93 99 109 117 115 108 94 86 86 97 111 229 231 241 200 114 75 57 64 107
76 34 64 78 108 102 96 146 110 109 102 93 81 74 80 110 113 88 77 80 71 107 93 106 108 155 179 136 97 109 114 116
299 60 73 85 122 194 170 97 168 106 100 97 88 95 89 97 105 86 61 68 90 74 88 69 57 75 112 141 160 122 119 105
361 141 60 71 141 99 141 194 177 124 114 131 91 72 69 76 77 82 76 50 55 90 64 33 91 93 61 98 119 178 149 177
306 433 157 171 131 91 145 191 157 172 158 135 104 81 66 77 47 48 53 79 64 42 46 24 70 91 146 123 91 190 161 132
246 283 372 136 74 91 148 163 194 200 178 159 118 96 76 63 61 45 50 58 45 42 19 18 35 64 103 83 120 152 119 127
245 299 323 359 415 296 305 277 188 251 246 196 170 126 84 76 60 47 38 37 30 20 6 1 13 20 65 85 114 102 106 138
235 312 363 341 403 440 559 692 585 388 359 348 286 214 192 165 153 76 42 34 33 22 9 4 -10 -2 44 48 31 44 60 73
213 302 363 368 408 484 583 629 577 507 489 415 331 278 258 246 239 204 191 213 206 193 96 157 157 149 142 121 95 55 14 24
117 269 340 390 430 458 526 558 540 460 494 412 306 299 292 276 274 263 246 222 220 202 249 250 238 202 237 189 157 134 136 148
23 182 315 383 408 445 455 541 524 492 441 372 310 295 314 288 265 283 296 292 280 280 245 207 209 215 266 234 190 161 183 187
84 138 267 360 377 390 353 432 489 517 454 357 330 284 301 288 214 214 228 234 254 261 254 233 215 238 305 296 183 196 217 238

GFSFLT1_con_3kmhel_084.txt.gz
Helicity
58 51 -17 -25 56 224 431 399 310 175 249 222 184 165 179 220 195 153 134 103 139 132 149 200 183 194 190 153 120 114 147 68
-1 29 -11 25 129 243 375 397 264 173 306 196 190 186 182 200 193 173 127 126 118 153 190 170 192 191 160 134 157 176 112 138
60 47 54 103 167 226 334 317 189 183 199 123 167 137 153 161 196 150 142 139 91 88 151 167 205 218 189 151 102 187 80 97
31 45 29 193 181 249 307 228 184 167 147 164 216 207 190 169 161 143 110 65 47 102 131 206 219 238 172 150 225 157 220 106
38 24 -9 187 192 267 246 210 176 174 158 203 216 208 176 198 135 140 81 43 34 74 108 178 165 189 208 211 212 136 171 129
55 26 21 205 219 280 232 227 183 195 171 225 178 170 131 135 127 136 101 115 93 129 159 175 235 257 210 164 198 275 360 178
61 33 40 160 247 288 238 224 170 152 170 170 102 94 147 113 177 182 165 128 116 105 113 149 170 202 204 172 216 164 111 148
282 184 21 59 270 282 264 224 165 153 131 120 99 148 197 149 189 173 145 123 114 89 111 167 218 221 173 172 206 145 94 59
247 233 196 70 345 325 277 181 138 182 115 138 136 211 152 131 150 152 117 103 101 102 97 146 208 126 165 181 170 172 109 44
242 271 359 50 176 233 214 139 159 172 166 158 165 185 118 115 114 123 87 111 97 102 75 97 113 179 190 121 113 114 65 40
187 411 545 242 248 338 319 168 191 234 190 147 149 211 178 137 132 115 114 88 91 90 94 102 68 76 119 245 222 140 116 93
198 373 523 561 247 288 288 324 269 228 208 228 241 176 131 113 98 103 113 92 100 103 99 84 77 80 80 80 121 146 129 175
163 260 426 409 427 320 181 191 205 241 268 242 215 172 178 127 102 86 110 121 83 78 81 81 47 66 78 72 55 80 94 162
196 235 314 329 303 263 311 288 141 189 260 224 200 157 151 115 103 91 108 103 78 61 57 50 28 16 53 74 113 109 87 97
159 233 287 336 312 305 351 398 375 346 387 384 399 384 338 322 246 182 133 116 86 71 112 141 169 168 187 156 81 92 89 81
92 158 252 336 412 407 468 488 522 424 459 483 409 382 366 318 339 343 320 279 245 210 210 207 177 175 169 159 164 156 93 57
50 106 134 280 394 436 509 485 479 513 510 454 405 374 351 316 298 303 335 329 303 299 272 240 236 195 210 175 138 151 186 219
17 72 95 168 336 403 480 501 518 582 628 522 423 413 379 363 343 340 355 357 331 321 292 257 244 241 269 192 211 195 178 168
48 12 33 92 215 347 385 451 547 665 671 663 524 464 410 365 358 373 353 362 377 317 292 286 275 365 244 172 186 215 228 227

GFSFLT1_con_3kmhel_087.txt.gz
Helicity
73 100 138 102 134 153 449 536 576 444 272 261 241 168 141 149 182 204 227 204 191 205 191 190 205 170 177 200 196 200 216 184
66 60 98 129 145 165 405 582 544 463 346 364 283 195 153 164 157 164 215 220 218 204 204 180 158 153 173 170 197 163 97 351
73 58 51 87 106 139 387 527 526 453 434 326 281 228 148 155 163 151 247 218 194 200 169 172 171 164 145 177 182 187 152 166
39 0 33 47 153 250 489 455 411 421 391 291 240 196 186 194 172 191 206 173 164 155 133 149 147 135 178 191 176 171 204 138
36 49 70 88 218 406 414 362 340 372 286 247 248 218 228 183 175 161 177 131 125 98 71 111 130 136 189 169 220 261 312 189
65 42 94 122 288 329 346 344 328 331 246 262 292 240 217 234 201 186 172 140 93 68 83 89 128 161 155 194 229 155 219 315
156 192 190 188 288 375 361 329 298 301 249 288 277 196 175 208 186 193 162 195 142 89 87 96 105 169 244 209 185 261 260 195
223 246 201 310 298 372 400 401 395 321 286 283 225 145 138 132 183 205 184 190 130 96 102 100 147 156 209 174 185 211 220 162
250 287 323 297 199 212 424 334 352 291 269 220 149 117 137 149 181 169 161 154 93 80 70 62 86 98 146 198 173 253 219 246
185 199 319 401 242 346 384 350 300 262 191 158 162 208 196 167 175 149 152 143 108 100 79 91 110 163 154 176 149 175 281 143
183 154 310 498 465 336 429 275 243 229 181 213 221 198 184 170 166 118 109 104 95 89 68 70 114 88 79 95 132 207 119 94
236 185 225 341 421 510 298 248 267 231 255 236 242 182 202 180 145 120 114 94 83 92 82 69 59 61 105 149 184 144 184 224
167 154 206 294 330 380 402 482 343 373 337 255 256 268 211 162 142 135 122 94 82 78 81 68 52 45 48 87 201 184 110 81
171 138 119 218 305 323 379 441 408 282 253 323 337 231 180 162 167 147 137 128 103 95 77 69 42 16 23 63 82 86 86 90
107 174 153 142 205 250 296 398 498 335 389 399 343 341 329 303 287 282 245 212 226 193 164 179 161 124 124 83 56 56 85 95
69 120 161 177 217 283 307 427 472 449 358 377 351 348 343 341 337 335 311 313 268 221 202 199 182 147 157 141 148 95 48 110
41 122 114 152 165 249 293 420 520 493 420 374 355 331 396 418 384 364 368 346 304 286 287 247 216 163 156 146 174 233 306 250
41 46 105 108 141 119 279 344 446 595 586 484 396 379 415 407 398 444 473 410 397 373 343 330 313 244 238 271 271 273 299 303
32 37 39 89 111 140 152 291 366 502 640 618 493 478 485 458 449 436 454 442 429 418 445 463 419 327 274 278 318 315 314 311

GFSFLT1_con_3kmhel_090.txt.gz
Helicity
43 77 34 47 109 258 271 316 330 403 376 379 319 271 259 242 217 189 181 203 246 249 199 200 182 159 138 129 121 174 160 169
84 36 65 98 54 218 263 311 334 437 356 352 308 274 276 266 209 179 179 192 225 263 263 253 219 177 130 114 171 181 209 182
130 114 46 69 139 188 321 350 356 331 420 335 384 342 292 271 222 164 166 198 246 273 287 261 196 166 113 125 168 207 222 224
79 61 125 71 116 206 312 383 322 368 496 456 430 385 341 248 193 160 164 213 257 276 261 224 161 130 137 155 176 208 216 222
52 120 84 84 31 132 316 341 347 426 549 401 358 353 321 233 181 165 180 215 246 261 242 169 127 121 124 135 186 185 212 225
207 140 87 95 12 149 314 334 352 458 432 338 377 359 300 246 207 160 158 177 206 222 171 134 101 95 97 91 162 235 233 366
301 261 212 233 204 140 312 337 353 441 324 337 361 346 270 250 220 165 132 132 163 183 126 92 85 69 93 109 126 185 292 206
302 294 335 312 281 205 181 252 311 278 324 313 327 242 226 228 204 166 140 129 175 131 91 72 61 74 125 172 193 221 291 313
148 218 236 327 296 147 182 132 213 286 337 299 242 179 211 234 201 160 108 119 160 156 123 68 70 93 108 157 215 214 226 266
54 227 276 347 384 387 163 227 258 298 311 271 172 170 213 202 164 145 117 146 144 156 84 55 49 89 114 166 213 299 189 376
189 241 332 375 373 525 443 280 211 256 310 225 159 124 167 173 170 132 126 166 124 125 86 59 48 57 52 89 181 284 215 271
167 220 281 250 296 523 473 436 298 234 213 232 185 145 161 180 145 131 141 134 103 97 71 79 82 84 90 73 168 165 164 290
107 155 239 287 301 428 440 364 464 135 186 195 162 187 176 143 142 156 147 93 79 81 90 95 83 64 34 78 80 132 179 225
57 148 172 307 353 366 387 392 393 208 140 230 244 242 196 177 175 164 149 118 94 89 86 94 89 52 23 44 104 108 155 138
7 86 142 217 281 287 314 295 454 381 362 337 391 314 273 264 292 285 259 234 190 166 150 133 122 96 37 40 93 159 145 144
44 47 124 169 220 232 263 305 341 431 407 614 408 353 354 278 301 311 290 288 219 181 157 149 123 122 82 79 87 103 125 200
73 57 83 175 226 224 175 271 360 405 461 414 395 366 390 322 339 340 360 315 260 242 228 180 174 126 149 148 169 255 225 225
56 65 53 84 183 240 223 171 192 362 459 474 448 425 417 391 377 424 414 397 339 323 297 271 277 249 258 294 297 309 336 297
28 34 52 43 128 235 184 180 131 192 343 442 425 452 465 484 464 483 484 459 441 405 370 324 313 311 301 330 383 366 377 358

GFSFLT1_con_3kmhel_096.txt.gz
Helicity
40 20 17 37 25 67 118 151 209 232 267 291 288 294 270 238 223 197 170 162 166 177 184 175 170 184 185 206 183 190 201 181
53 26 -33 22 2 62 86 151 175 235 228 264 289 328 251 223 263 215 181 170 170 190 197 193 179 195 190 194 204 228 215 225
49 55 55 41 45 24 91 96 174 233 234 232 325 288 245 235 288 207 231 208 188 202 211 199 192 216 210 215 218 245 219 213
37 35 46 29 114 120 76 99 102 218 248 311 381 363 363 381 290 283 209 226 223 208 209 211 218 215 204 224 227 197 218 209
25 -4 40 41 58 107 129 101 113 167 249 251 273 334 333 300 340 312 257 94 193 212 184 203 203 224 206 228 181 156 175 202
-12 -16 77 125 68 68 110 110 111 116 241 277 283 285 316 364 348 253 72 111 198 210 200 195 229 220 182 231 174 145 154 147
-19 35 51 125 71 85 101 140 146 149 190 239 251 247 353 357 321 378 275 319 322 172 199 220 219 213 210 213 156 131 132 142
-15 12 52 119 78 108 122 181 211 149 122 137 194 246 274 347 370 261 383 377 310 220 244 246 229 201 198 199 153 125 126 146
-25 -1 98 121 90 128 190 210 272 138 142 129 167 242 282 252 247 321 306 296 280 252 240 215 201 222 169 133 123 121 106 115
1 13 164 184 135 207 198 214 202 92 140 161 188 209 223 258 220 174 150 207 254 199 176 176 173 170 169 155 121 108 115 122
9 14 68 74 125 191 207 235 287 102 136 147 177 205 231 219 213 152 186 218 201 148 136 123 161 182 166 145 113 105 111 137
-6 11 61 68 118 163 241 300 409 328 128 110 154 191 229 201 155 169 153 155 161 133 120 184 187 173 166 156 114 117 106 135
-17 16 34 92 164 221 299 340 425 378 295 182 114 146 155 187 152 130 128 174 166 123 146 178 145 118 125 119 97 96 83 104
25 30 54 71 171 227 358 342 395 427 342 259 176 177 160 208 116 131 172 195 155 128 146 126 108 107 136 98 92 73 66 48
31 64 62 77 135 163 271 317 384 316 270 270 329 358 126 128 127 144 185 200 173 179 189 181 163 165 156 82 62 13 51 54
19 56 83 76 115 188 179 172 255 207 126 212 271 363 474 371 327 317 311 275 250 214 189 174 159 156 136 77 55 12 100 179
29 45 75 85 86 178 187 205 197 131 114 189 193 237 269 542 531 398 393 310 278 246 224 187 168 151 169 143 75 104 143 195
58 61 65 78 88 93 145 184 162 166 160 183 219 115 146 469 626 517 443 353 273 263 229 196 193 164 183 194 216 165 194 211
52 55 66 69 70 66 84 154 162 165 152 198 284 168 142 115 285 544 468 392 345 287 248 210 193 187 213 231 242 208 248 280

GFSFLT1_con_3kmhel_099.txt.gz
Helicity
97 97 86 70 90 128 111 82 85 81 121 150 141 217 206 209 232 209 202 270 221 196 178 159 161 171 198 183 182 167 138 148
96 99 71 40 71 135 127 81 98 99 97 143 153 151 200 228 262 226 217 246 232 205 206 169 177 189 198 188 173 173 197 202
72 68 52 38 32 15 144 107 74 129 116 143 194 186 178 207 238 228 250 234 222 238 213 199 201 207 204 209 209 215 222 234
34 42 20 44 65 51 29 155 91 113 153 124 163 147 184 213 247 274 211 237 248 231 184 213 230 223 231 224 224 246 246 229
-19 -2 30 63 57 -3 31 90 141 92 127 109 144 197 199 243 266 259 293 314 330 286 183 157 187 221 230 226 215 245 254 228
-2 10 -5 27 36 102 90 68 63 74 124 82 140 195 201 196 256 362 334 355 342 395 221 98 175 210 200 206 242 241 232 219
10 11 17 7 7 13 27 72 67 64 135 66 83 120 157 193 211 294 318 328 288 418 411 206 135 187 196 201 210 193 194 172
14 26 49 16 35 36 17 93 84 150 171 48 65 111 114 95 178 250 299 302 173 127 205 148 186 212 200 171 201 179 186 153
32 36 22 5 56 54 99 121 144 194 169 71 106 142 124 115 132 207 251 283 259 314 281 281 267 225 214 199 199 153 153 136
44 12 -3 -7 55 134 118 155 181 232 225 86 115 133 152 157 120 173 231 195 200 228 270 351 252 231 193 188 184 161 134 145
-18 -25 -6 7 39 104 103 165 227 304 380 117 111 115 120 156 190 219 240 213 136 151 219 212 195 181 169 178 174 130 136 129
-30 -34 -16 -5 46 54 79 184 275 403 347 152 128 127 149 224 209 163 191 197 250 57 132 148 137 137 141 169 146 130 126 111
-17 -60 -14 19 58 143 166 229 294 430 351 335 124 147 82 128 146 136 152 226 242 135 93 102 106 143 173 145 133 135 129 124
-14 -14 -3 29 64 97 158 249 295 436 363 248 303 225 174 83 123 102 90 181 155 112 137 136 139 148 134 110 91 76 105 117
13 13 10 42 66 100 123 193 221 347 385 244 195 216 190 171 88 108 172 238 260 168 190 193 169 160 143 110 91 103 98 49
81 61 30 47 89 102 162 159 169 256 178 238 218 148 210 382 384 460 377 402 300 285 253 241 228 194 162 113 85 67 61 72
33 58 61 62 73 105 115 120 182 175 195 198 196 150 167 198 527 483 492 424 409 383 330 261 226 179 156 79 83 127 148 114
66 35 73 72 69 61 83 112 136 169 194 192 271 286 206 132 220 522 525 569 482 421 357 271 246 197 172 157 195 171 188 162
28 44 62 69 58 66 52 84 106 125 185 162 196 220 186 183 132 355 465 605 532 424 344 260 226 200 220 192 230 221 232 217

GFSFLT1_con_3kmhel_105.txt.gz
Helicity
149 99 122 120 113 94 82 91 83 82 103 135 142 157 130 141 129 142 150 124 117 165 189 224 237 213 227 235 205 155 161 112
133 118 113 116 110 95 91 100 116 112 106 94 119 149 158 145 144 164 176 152 140 176 194 205 239 257 200 229 194 158 188 172
142 130 112 96 83 76 71 77 88 113 160 174 209 218 251 204 149 156 167 193 194 211 189 218 190 266 190 233 238 213 204 207
128 115 83 58 61 64 49 60 75 87 85 120 165 193 164 203 254 196 155 146 193 253 282 218 255 281 275 306 229 201 210 218
109 83 77 63 61 55 48 35 49 60 94 118 176 220 271 205 188 188 141 138 153 214 280 233 258 282 283 298 236 189 149 221
83 78 61 48 50 43 34 19 27 52 88 129 145 137 161 148 197 201 154 118 153 178 222 292 334 267 289 240 172 133 145 164
69 59 50 43 35 28 16 16 22 51 80 96 93 90 124 117 146 232 195 164 203 191 220 276 308 318 282 250 262 87 146 155
82 64 39 28 23 26 26 18 24 53 68 63 59 68 72 60 63 160 166 160 181 218 256 276 301 240 273 272 183 87 103 169
76 66 42 15 11 21 23 29 37 59 67 63 80 76 68 45 22 82 148 141 99 191 229 251 180 224 269 247 341 233 190 187
94 64 42 8 -12 1 8 33 38 47 73 49 104 142 110 47 16 83 128 127 94 170 203 176 192 214 235 264 289 216 192 120
64 32 11 -39 -28 -8 7 29 41 12 70 36 106 210 219 161 30 70 112 135 102 97 136 202 231 182 220 272 295 212 119 96
45 4 -26 -29 -10 -4 9 29 40 45 51 67 115 211 205 180 133 53 80 68 70 86 201 201 179 246 288 205 151 115 9 61
15 8 15 22 25 24 27 53 48 39 60 65 100 195 249 187 203 196 97 68 87 128 159 157 155 189 257 262 116 -32 33 35
67 71 45 36 31 38 50 73 84 56 77 164 117 240 292 277 242 251 154 90 140 155 149 135 133 143 214 158 84 -50 30 50
78 90 75 57 42 44 56 69 87 91 117 154 157 287 292 236 227 279 385 325 163 159 135 153 145 130 140 169 258 156 150 131
102 90 64 52 66 76 84 68 78 99 135 136 224 152 78 99 254 295 236 340 308 488 245 274 213 283 286 260 84 167 155 156
86 89 62 56 94 96 78 72 71 86 133 152 187 198 174 235 290 245 103 142 276 427 398 371 335 325 394 349 316 232 236 223
106 96 70 85 97 91 90 74 57 80 128 145 170 188 181 203 309 322 307 88 162 366 426 412 389 350 378 294 357 336 294 276
107 89 89 90 79 80 68 54 72 93 105 133 154 170 163 127 117 161 234 201 275 222 493 573 531 531 477 364 404 375 354 324

GFSFLT1_con_3kmhel_108.txt.gz
Helicity
243 177 289 179 170 142 140 124 105 90 88 102 124 138 127 139 142 141 139 222 185 143 161 212 244 250 263 314 250 272 245 206
205 260 229 179 135 133 135 112 106 93 67 70 87 116 173 186 161 143 173 210 207 165 191 187 289 294 284 335 311 319 310 266
190 187 167 107 105 96 97 96 94 86 84 85 61 36 68 138 212 274 211 170 213 212 177 241 297 310 301 309 328 310 307 290
191 197 122 85 72 66 77 78 73 67 77 67 70 88 98 88 117 95 183 199 247 284 224 245 297 255 171 183 230 259 315 312
324 177 102 76 76 71 73 72 66 56 56 58 81 66 67 101 119 210 232 210 284 296 300 278 318 294 317 224 137 270 291 306
241 129 118 110 76 55 44 49 53 47 41 40 43 62 84 91 103 86 169 278 235 287 328 277 287 318 314 381 331 186 256 317
140 107 108 86 61 41 29 30 32 35 35 38 43 49 53 62 63 52 24 104 226 233 324 276 264 295 319 317 354 182 309 251
116 107 106 82 66 38 2 9 18 12 17 22 43 58 56 53 24 47 -4 -10 133 102 213 260 296 335 341 290 286 181 216 204
133 107 91 73 38 -12 -20 -13 6 8 16 27 57 63 75 68 58 63 31 -43 105 243 76 164 229 288 323 349 201 245 325 232
135 106 51 39 6 -38 -66 -12 12 10 16 33 78 86 85 76 60 66 82 37 23 142 142 153 170 239 273 341 249 201 164 240
115 60 30 18 -14 -40 -40 -16 -3 12 23 42 70 103 110 63 33 63 123 75 53 102 115 116 168 206 278 263 208 187 196 244
74 47 28 10 -3 -6 -5 -8 -4 9 31 58 72 113 131 77 29 67 140 142 47 89 137 157 166 231 216 253 198 211 218 190
60 55 44 36 16 19 12 2 13 23 33 48 76 90 143 132 59 91 187 205 170 58 87 150 169 213 238 220 277 261 215 261
88 117 95 54 43 27 18 14 20 53 62 70 75 111 146 179 163 186 165 180 134 129 52 107 144 193 197 256 246 258 248 149
84 92 78 57 44 33 41 43 46 56 81 101 112 122 150 151 195 231 235 180 154 190 283 111 161 106 154 200 204 216 192 172
63 80 70 64 61 61 69 65 65 68 95 118 123 117 129 130 124 190 337 200 106 187 342 383 358 304 232 152 138 143 101 134
89 100 95 93 81 86 80 76 76 75 91 108 120 110 130 131 129 196 229 317 156 90 287 572 313 390 453 284 132 192 215 202
107 113 108 93 93 101 95 94 83 80 77 89 114 126 135 151 120 140 206 317 321 227 238 297 297 364 577 582 417 405 395 389
89 92 91 97 86 108 100 85 85 79 73 83 119 141 136 145 156 156 145 187 223 275 255 245 217 328 558 623 587 543 546 390

GFSFLT1_con_3kmhel_111.txt.gz
Helicity
496 531 531 487 380 349 261 146 116 100 118 133 138 150 166 164 154 132 120 150 149 168 165 162 191 240 323 371 312 310 300 303
558 562 498 432 310 196 153 114 89 70 74 94 111 106 103 108 132 169 168 193 167 163 202 204 185 209 249 366 408 349 392 358
520 465 421 320 204 165 141 86 59 64 50 44 26 45 41 66 54 61 93 126 177 199 237 243 241 229 247 309 391 462 438 390
451 363 386 287 215 172 81 66 74 58 68 30 19 8 14 -4 29 58 49 108 159 189 169 226 276 304 286 363 407 342 649 246
529 511 385 207 196 107 48 48 53 52 34 21 29 12 32 39 32 55 55 54 61 164 294 172 243 296 268 301 434 340 497 216
499 473 275 232 165 57 31 43 35 39 25 9 8 24 21 28 33 26 33 38 64 71 221 324 203 294 282 381 445 381 324 530
437 317 224 201 131 53 15 41 45 25 19 24 21 23 27 30 39 20 20 62 59 48 98 318 207 217 267 323 344 286 382 338
357 252 192 263 89 7 -14 -24 -0 17 27 22 29 17 14 20 27 27 18 48 58 55 44 177 230 177 175 210 252 311 360 368
222 145 139 107 45 -29 -53 -53 -34 -15 30 52 39 31 10 9 20 27 49 91 93 87 60 49 132 200 218 163 166 268 389 299
169 36 55 54 1 -19 -33 -38 -40 -12 21 41 55 50 37 33 44 58 75 74 100 65 116 36 112 158 187 -56 72 250 287 355
17 3 40 -1 -2 -29 -34 -23 -11 9 16 19 25 41 43 43 53 59 70 58 58 69 74 118 99 144 102 56 66 281 351 303
55 43 29 5 11 27 13 18 26 26 26 27 28 45 56 67 72 108 90 69 67 78 84 58 55 83 127 40 193 296 294 309
27 13 18 17 30 49 42 43 54 43 38 26 30 50 60 80 90 129 125 97 119 154 147 93 68 78 79 118 181 187 259 237
-34 -8 17 42 58 68 58 61 63 48 45 51 57 72 84 117 115 131 128 136 166 188 153 172 182 109 52 142 116 136 136 161
30 28 52 71 79 77 63 76 65 67 64 65 83 94 92 93 97 101 120 159 204 283 166 150 71 205 216 177 130 176 222 223
69 59 78 86 88 83 83 86 86 85 77 76 95 101 89 101 113 107 125 173 262 252 285 222 233 437 355 153 129 122 239 207
89 90 100 99 113 105 99 107 114 96 88 87 85 71 87 134 139 127 156 204 193 210 315 209 199 268 249 303 133 115 231 232
78 82 106 115 110 103 117 127 124 118 100 83 72 59 83 115 137 174 179 216 217 243 266 210 218 236 322 199 475 478 422 387
66 74 75 92 105 111 119 122 120 100 85 75 52 63 86 90 118 133 149 121 156 247 304 249 193 223 384 315 206 610 638 620

GFSFLT1_con_3kmhel_114.txt.gz
Helicity
751 841 814 750 685 578 408 278 223 170 162 164 100 89 131 86 76 97 121 148 170 143 123 148 189 231 223 256 238 271 284 236
829 906 810 754 670 531 422 324 201 121 103 142 99 51 74 91 83 71 84 88 140 175 147 122 145 170 191 235 265 297 337 358
773 712 670 641 542 443 370 283 218 147 69 53 44 88 39 56 56 90 81 65 96 134 151 172 141 149 171 226 219 242 247 336
481 571 548 558 479 334 216 175 191 199 119 37 24 11 11 7 43 59 99 107 86 85 97 113 151 189 166 175 232 202 209 380
647 490 559 521 402 297 243 200 215 142 88 45 29 2 11 26 28 35 61 104 110 85 78 98 140 174 166 162 227 244 343 389
454 422 379 429 339 270 222 186 220 126 71 34 4 31 26 27 22 15 28 51 80 114 106 94 138 187 204 157 253 340 367 449
591 433 404 318 263 228 173 106 135 87 20 5 4 9 26 31 21 33 17 28 52 87 130 143 158 188 261 192 240 264 335 385
490 444 408 324 232 216 140 168 128 65 -2 -12 10 23 9 10 19 4 47 25 44 95 137 157 155 143 186 246 296 320 291 311
410 376 268 217 164 110 113 92 63 54 33 21 18 24 1 7 21 11 14 14 24 63 64 107 128 140 108 167 233 311 301 243
382 382 203 115 8 25 33 32 34 50 49 32 25 29 30 26 46 29 10 13 -5 13 50 63 111 104 104 104 168 206 276 273
130 98 68 -45 -15 -14 15 18 7 -1 2 13 31 35 41 26 21 24 33 37 30 34 47 46 67 89 124 99 158 145 223 266
4 -13 -22 -41 -44 -14 19 81 84 84 85 82 76 65 54 42 28 30 29 44 48 54 81 69 52 51 91 135 144 105 125 120
-17 -8 -5 -7 10 31 45 73 69 56 65 74 76 65 55 40 21 41 60 55 63 76 93 95 65 83 109 89 169 105 112 112
5 3 28 46 56 59 79 80 102 102 85 77 72 78 79 66 62 51 75 82 73 109 120 140 137 107 187 282 158 112 93 53
28 7 9 36 57 76 92 100 119 110 95 90 94 84 64 68 72 89 104 102 117 132 176 183 183 172 167 233 242 162 111 4
64 59 51 68 82 89 102 133 126 110 99 108 108 79 63 70 99 104 116 138 137 154 196 270 245 148 122 207 163 146 89 -126
115 97 84 76 102 112 124 132 130 101 109 123 112 94 81 74 100 120 120 146 170 228 266 253 247 145 228 240 189 160 229 293
97 92 91 87 81 97 111 114 103 114 119 123 118 99 87 79 49 66 142 175 167 202 271 320 324 282 248 252 334 273 335 268
66 60 76 75 67 64 68 82 101 122 123 121 112 92 58 46 23 5 11 28 40 72 153 240 332 376 372 321 315 187 184 374

GFSFLT1_con_3kmhel_117.txt.gz
Helicity
222 412 624 805 833 836 759 675 558 426 315 224 207 216 230 205 181 127 104 80 75 59 81 122 172 144 158 204 141 156 193 90
412 584 711 839 841 810 731 603 509 399 331 232 151 107 163 189 186 166 129 87 98 78 48 61 88 125 124 161 177 157 189 191
508 727 763 693 710 677 587 492 390 308 200 98 100 113 82 78 136 163 124 107 93 92 82 70 89 111 151 127 143 173 189 243
570 693 675 604 508 470 438 415 348 296 208 146 85 96 83 53 80 90 127 135 107 70 77 69 68 100 127 160 161 154 171 209
674 705 564 625 412 327 364 381 348 317 230 128 122 40 37 49 70 60 65 72 94 111 89 76 64 67 117 133 155 171 175 217
615 550 455 429 585 362 294 348 345 284 253 160 71 72 40 14 19 44 49 48 82 93 97 122 100 87 94 134 163 178 195 211
576 544 462 547 382 360 412 310 300 235 205 170 147 94 70 35 28 9 1 16 40 82 102 98 111 124 105 111 143 192 198 244
760 608 568 414 255 131 155 237 157 139 152 145 128 120 91 62 36 5 30 2 3 44 84 101 105 100 113 125 131 145 216 263
272 440 477 321 260 143 105 111 101 143 130 90 72 71 64 49 50 34 14 6 12 25 38 61 81 91 90 104 107 106 140 214
159 113 83 176 78 83 59 91 76 67 40 46 74 72 88 90 87 54 43 29 29 31 29 23 47 81 74 94 105 131 143 198
84 67 19 -16 16 3 41 59 85 80 60 64 78 85 84 79 74 81 62 47 44 37 32 25 33 46 69 85 87 128 125 161
-4 -18 -23 -28 -26 -4 -5 -19 -1 45 40 40 54 82 84 84 74 64 63 50 48 46 40 26 25 49 63 74 105 82 135 131
0 41 -9 -19 -10 16 40 59 63 57 61 62 81 96 92 103 102 84 74 74 66 45 35 33 48 64 74 78 107 132 85 128
57 44 54 50 26 30 46 70 78 66 70 85 89 86 88 88 85 84 69 80 65 99 100 85 97 98 110 122 122 128 137 84
67 68 75 92 111 110 108 111 99 103 113 109 119 117 97 96 83 64 56 58 93 140 158 148 155 111 135 182 193 184 200 160
98 90 86 79 72 71 79 93 86 95 119 106 109 106 101 91 86 95 70 65 68 97 148 193 204 162 139 202 219 191 193 179
120 107 88 73 84 77 78 88 100 89 87 97 89 87 91 71 69 85 75 87 88 101 157 184 233 185 293 281 265 115 145 228
127 98 74 72 90 80 71 65 77 94 104 108 105 87 73 82 60 52 71 57 32 30 69 141 181 264 320 294 308 230 219 311
107 85 77 77 55 41 32 35 58 76 80 82 90 66 56 42 36 42 38 24 9 1 20 53 59 129 226 287 274 229 260 267

GFSFLT1_con_3kmhel_120.txt.gz
Helicity
167 272 354 441 507 551 605 616 574 500 402 362 339 288 235 204 212 223 242 223 187 149 142 165 169 151 127 128 168 293 268 194
322 400 439 476 540 589 647 647 599 497 399 311 278 256 234 198 177 207 213 168 136 114 98 109 137 158 159 177 145 147 173 233
372 442 486 493 493 554 572 587 525 458 400 327 238 203 196 170 162 164 184 157 132 111 81 78 94 116 137 150 177 149 146 148
392 438 476 461 460 522 513 447 498 432 404 338 272 187 145 125 165 172 196 151 120 111 91 70 86 95 110 150 179 192 193 170
412 420 505 532 444 446 447 433 348 337 399 295 253 183 191 196 161 116 105 129 137 132 113 103 81 68 81 102 144 185 214 214
430 456 452 415 466 423 427 321 426 40 207 236 201 150 184 158 159 144 101 104 114 125 128 117 102 94 89 92 106 135 169 197
428 348 384 447 377 422 324 383 280 343 160 138 131 99 145 161 174 118 114 72 102 104 115 109 119 99 93 89 94 98 126 164
201 294 259 219 295 415 529 570 464 238 76 100 143 109 128 121 100 65 83 63 80 84 109 109 106 115 112 97 79 81 92 122
85 45 24 59 145 232 272 164 133 132 77 45 65 91 89 81 97 103 76 48 61 87 70 91 94 102 104 99 89 78 78 100
50 47 17 16 38 -5 50 50 31 15 20 29 52 62 62 85 129 110 102 99 76 72 54 80 87 92 100 106 96 94 91 87
55 28 26 -3 -13 20 11 28 -2 9 18 17 29 57 76 89 105 125 118 112 112 97 73 67 69 89 95 106 95 115 93 102
31 10 16 30 25 31 24 49 42 12 -11 -21 3 45 60 54 60 80 88 102 104 109 92 66 74 74 94 107 117 120 125 126
43 23 27 31 33 53 42 40 55 61 49 52 55 52 62 76 94 99 96 80 70 58 66 73 73 93 85 82 104 140 149 155
58 53 53 48 52 46 48 47 38 50 53 71 80 89 98 98 93 109 111 107 107 101 94 108 96 100 98 101 107 138 166 196
77 66 66 72 71 68 71 73 79 94 100 103 112 113 113 114 109 109 113 104 117 132 134 117 101 126 111 98 101 149 191 208
99 84 89 99 107 79 76 79 98 91 97 111 125 118 105 79 65 60 49 53 77 98 114 130 130 149 138 147 112 130 167 239
112 109 111 110 118 102 99 90 83 80 83 94 97 101 84 57 28 37 38 43 43 58 69 106 162 160 200 167 105 78 135 168
136 136 121 106 89 81 77 60 49 67 71 82 93 81 73 38 13 23 41 48 32 26 36 37 54 72 107 84 104 59 74 157
147 125 111 90 81 61 30 24 39 53 64 72 86 55 33 45 46 52 70 47 37 25 45 45 50 96 113 66 -8 -15 15 78

GFSFLT1_con_3kmhel_123.txt.gz
Helicity
126 156 171 215 265 313 352 365 404 336 290 274 254 232 233 245 218 205 208 177 175 158 160 151 130 131 135 144 155 163 168 182
183 182 189 236 291 327 371 390 356 317 311 283 262 258 241 222 213 214 196 180 173 177 174 167 162 136 138 146 142 151 192 244
214 223 218 225 249 302 325 325 368 317 241 260 228 267 207 165 179 177 190 185 178 173 171 158 150 149 145 144 156 178 172 192
197 230 241 237 235 217 248 269 299 335 325 215 204 255 283 198 171 164 177 180 173 188 158 145 128 107 120 148 165 171 185 206
165 171 181 194 219 284 203 249 259 321 344 338 248 121 249 185 159 152 140 145 161 207 185 160 131 108 97 107 138 165 202 193
58 73 73 70 126 172 263 209 218 209 241 252 255 374 125 106 108 133 104 107 158 188 188 175 159 129 116 117 125 129 146 178
91 91 109 172 221 225 259 215 146 192 261 243 236 153 24 4 89 64 80 138 143 159 191 174 141 137 132 125 120 109 117 125
60 70 87 103 156 181 205 211 186 189 188 230 260 169 96 -47 -19 -26 82 98 86 102 140 150 132 132 127 119 122 107 98 92
-9 -12 2 4 -6 32 67 92 160 213 202 117 103 57 54 -66 -13 18 56 38 49 85 106 126 137 124 123 114 105 96 99 90
20 20 33 36 30 24 27 8 75 100 76 57 59 68 88 96 86 51 46 55 75 87 115 142 125 113 114 114 98 104 83 89
38 42 41 42 34 45 45 46 62 48 45 52 52 44 51 62 56 40 55 109 122 125 144 143 123 106 103 102 88 94 92 86
61 49 47 46 50 55 64 63 60 62 70 73 68 78 84 55 82 73 98 114 138 143 130 121 128 133 123 131 116 109 113 128
93 75 65 59 57 61 67 67 57 59 68 67 72 61 57 69 81 83 86 97 99 134 154 154 174 176 159 113 124 147 166 192
93 91 77 73 67 68 81 72 57 62 74 84 90 105 92 93 89 85 71 57 64 92 137 184 181 194 187 150 137 155 161 185
111 102 97 89 86 95 85 73 78 75 70 80 88 94 93 92 77 68 66 53 39 54 63 105 144 181 148 134 152 178 183 188
124 113 102 95 101 108 97 82 78 67 60 58 59 63 65 73 65 38 19 21 42 49 40 57 66 84 109 132 107 141 172 185
145 124 108 111 110 114 112 102 84 61 60 65 65 75 88 100 53 30 32 32 37 33 35 30 54 48 62 31 -9 25 98 150
158 120 117 121 127 108 113 88 63 72 72 79 91 94 105 66 37 52 45 45 24 34 37 40 47 74 123 68 21 -35 -14 35
136 122 123 128 105 113 87 67 55 58 62 84 91 68 24 30 40 49 34 22 21 19 25 35 34 71 121 115 52 -2 -17 9

GFSFLT1_con_3kmhel_129.txt.gz
Helicity
108 95 101 110 122 120 129 127 140 141 125 80 89 147 147 133 171 235 274 226 225 209 182 155 81 66 71 90 85 65 75 87
56 48 75 99 106 116 131 137 136 116 115 141 121 113 120 137 131 128 169 179 220 266 250 224 176 137 130 118 96 82 79 81
70 90 92 85 114 134 153 169 164 158 139 129 106 82 70 67 79 116 139 132 125 146 157 133 110 86 109 125 124 83 87 93
107 90 112 109 113 131 132 139 155 158 177 126 132 92 79 93 94 58 115 157 110 85 91 126 117 93 88 101 103 104 72 88
106 131 123 114 101 101 110 117 126 114 106 123 148 137 138 101 128 131 128 95 142 146 77 77 111 110 81 81 97 84 80 61
116 101 104 114 108 84 55 41 53 67 81 105 106 122 104 93 108 145 108 130 75 84 113 76 70 85 99 87 89 96 90 68
101 99 94 89 71 56 48 48 52 46 48 56 70 78 78 92 105 75 96 88 96 67 47 59 60 96 114 80 82 78 82 87
108 112 100 74 56 50 40 39 55 60 59 64 68 74 72 76 84 109 90 80 58 76 62 37 29 32 76 47 75 89 90 99
111 110 99 77 69 72 56 52 55 71 79 79 83 90 77 71 60 51 61 62 75 83 138 91 127 2 -4 58 86 109 143 140
116 100 101 92 98 77 57 54 59 70 76 83 90 85 97 102 119 83 53 35 69 87 74 78 89 55 66 89 91 135 156 152
127 116 116 106 95 79 66 56 61 68 79 86 86 94 106 104 110 129 125 109 107 102 119 101 71 66 77 87 104 128 149 131
154 128 132 112 92 71 64 62 62 69 78 81 84 87 93 105 109 115 116 109 109 126 123 140 116 96 78 86 87 116 130 125
184 165 163 138 117 99 82 70 68 72 78 78 78 81 80 77 86 85 88 94 104 95 75 57 51 57 52 52 60 83 106 124
203 170 177 155 126 91 76 70 72 79 79 87 92 101 99 88 72 65 65 69 66 41 32 42 34 26 13 10 23 36 53 81
209 234 188 169 116 81 67 75 87 103 103 107 113 112 106 95 88 94 91 64 75 55 46 46 32 45 55 53 10 13 18 22
185 220 184 129 111 85 91 84 107 106 113 110 116 110 104 96 96 95 78 37 44 48 50 44 49 48 54 73 23 25 28 36
198 230 191 155 110 94 93 108 124 124 118 113 108 106 103 98 92 61 37 42 43 48 53 43 60 45 98 70 38 26 35 51
236 242 201 142 117 104 113 116 120 120 107 110 105 104 98 82 59 33 44 42 41 45 57 53 59 87 111 92 45 21 23 32
299 215 170 139 118 138 112 116 124 108 112 110 100 78 70 29 25 43 38 30 36 42 52 57 52 78 115 95 33 19 13 23

GFSFLT1_con_3kmhel_135.txt.gz
Helicity
227 163 184 157 141 108 82 78 132 149 149 160 142 114 95 87 114 137 148 160 203 220 158 222 145 153 134 146 144 133 110 88
200 146 186 144 150 149 113 99 121 154 179 176 177 171 87 72 78 80 98 109 162 196 184 172 159 115 139 130 138 178 136 137
233 270 219 142 100 96 92 100 92 127 129 145 132 178 172 175 116 164 99 81 134 161 219 231 219 186 219 154 145 108 94 146
356 299 165 98 73 91 87 80 76 75 81 102 141 154 158 154 142 166 147 150 134 153 159 168 184 201 163 147 141 146 138 91
417 263 156 121 94 99 95 75 75 78 78 103 124 97 98 65 67 91 122 114 82 82 119 134 125 119 165 169 126 113 98 135
374 239 189 160 134 117 110 88 93 86 83 85 91 101 91 72 75 89 119 110 94 89 110 140 131 118 108 110 135 143 116 109
239 218 204 152 153 127 120 99 98 78 73 84 97 104 95 75 84 79 67 60 56 74 92 97 112 133 142 125 104 93 92 81
238 254 209 209 182 152 128 119 109 101 87 74 77 84 84 73 74 71 68 59 53 65 76 87 82 99 107 120 122 90 92 95
200 197 245 246 205 175 191 129 105 96 78 56 53 60 55 58 70 67 61 64 62 71 84 76 84 83 88 104 89 59 74 113
275 289 278 258 209 199 199 164 121 104 82 59 55 54 70 68 74 54 45 50 59 71 66 76 98 121 112 97 89 87 78 103
276 267 308 251 203 194 189 174 153 121 100 84 69 72 77 80 69 65 59 52 66 47 53 68 100 138 146 63 80 86 83 97
243 265 290 240 207 205 193 186 154 132 116 79 65 72 70 71 70 62 59 61 73 73 53 53 73 116 138 77 63 64 134 107
180 271 295 228 210 208 209 179 143 92 67 75 106 150 146 119 109 115 108 129 86 93 58 52 73 111 119 71 51 35 54 86
147 246 284 294 275 220 205 153 101 90 101 161 163 162 168 160 143 137 130 151 89 82 98 88 100 117 131 90 52 52 54 77
178 288 340 363 296 229 216 165 174 212 209 180 187 191 197 192 167 150 161 171 154 53 51 42 91 127 127 106 48 56 74 73
254 405 510 452 322 233 200 177 188 201 186 191 188 217 208 184 162 141 125 134 134 30 30 65 91 118 114 52 34 39 59 62
313 521 549 494 393 281 216 198 255 234 223 209 224 216 204 175 147 122 88 87 69 40 56 77 104 105 140 87 47 23 37 62
467 615 604 517 403 273 255 307 275 236 189 185 182 167 168 149 110 85 52 48 70 72 65 69 81 89 111 119 80 28 30 39
548 603 589 533 433 315 356 337 321 265 229 187 157 142 121 107 74 36 32 35 29 20 58 78 85 90 114 107 92 27 11 29